Latitude: N 50° 09' 49" Longitude: W 05° 11' 53" Elevation: 168m ASL

There is 1 visitor online

Adverts

<- Previous Day | Today | Next Day ->

All Data for 13 February 2018

Time
A - D
Temp
A - D
Dew Point
A - D
Humidity
A - D
Pressure
A - D
Wind
A - D
Wind Dir Gust
A - D
Rain Rate
A - D
Rain Total
00:00 6.4 4.7 89 1001.2 27.3 S 31.1 0.0 0.0
00:01 6.5 4.8 89 1001.2 23.5 S 31.1 0.0 0.0
00:03 6.5 4.8 89 1001.1 23.5 S 31.1 0.0 0.0
00:04 6.5 4.8 89 1001.1 28.2 NNW 31.1 0.0 0.0
00:06 6.5 4.8 89 1001.0 28.2 S 31.1 0.0 0.0
00:07 6.6 4.9 89 1001.0 20.6 NW 31.1 0.0 0.0
00:09 6.6 4.9 89 1000.9 28.2 S 30.4 0.0 0.0
00:10 6.6 4.9 89 1000.6 19.0 S 30.4 0.0 0.0
00:12 6.6 4.9 89 1000.6 24.4 SE 30.4 0.0 0.0
00:13 6.6 4.9 89 1000.7 25.1 S 30.4 0.0 0.0
00:14 6.6 4.9 89 1000.5 24.4 S 30.4 0.0 0.0
00:15 6.6 5.1 90 1000.7 26.6 S 30.4 0.0 0.0
00:16 6.6 5.1 90 1000.4 27.3 SE 30.4 0.0 0.0
00:17 6.6 5.1 90 1000.5 23.5 SE 30.4 0.0 0.0
00:19 6.6 5.1 90 1000.4 24.4 SW 27.3 0.0 0.0
00:20 6.6 5.1 90 1000.3 27.3 SE 27.3 0.0 0.0
00:21 6.6 5.1 90 1000.3 27.3 S 27.3 0.0 0.0
00:22 6.6 5.1 90 1000.2 22.8 S 27.3 0.0 0.0
00:23 6.6 5.2 91 1000.3 19.7 S 27.3 0.0 0.0
00:24 6.6 5.2 91 1000.1 29.8 S 29.8 0.0 0.0
00:25 6.5 5.1 91 1000.2 27.3 S 29.8 0.0 0.0
00:27 6.6 5.2 91 1000.2 25.1 S 29.8 0.0 0.0
00:30 6.6 5.2 91 999.9 26.6 S 29.8 0.0 0.0
00:31 6.6 5.2 91 1000.1 20.6 S 29.8 0.0 0.0
00:32 6.6 5.2 91 999.9 28.2 S 29.8 0.0 0.0
00:33 6.6 5.2 91 1000.0 28.2 SE 29.8 0.0 0.0
00:34 6.6 5.2 91 999.8 28.9 S 29.8 0.0 0.0
00:35 6.6 5.2 91 999.7 27.3 S 28.9 0.0 0.0
00:36 6.6 5.2 91 999.7 25.1 SE 28.9 0.8 0.1
00:37 6.6 5.2 91 999.7 31.1 S 31.1 0.8 0.1
00:38 6.6 5.2 91 1000.0 26.6 S 31.1 0.8 0.1
00:39 6.6 5.2 91 999.8 27.3 S 31.1 0.8 0.1
00:40 6.6 5.2 91 999.8 26.6 S 31.1 1.5 0.1
00:41 6.5 5.1 91 999.8 30.4 N 31.1 0.8 0.1
00:42 6.5 5.1 91 999.6 27.3 S 31.1 0.8 0.1
00:43 6.5 5.3 92 999.6 26.6 S 31.1 0.8 0.1
00:44 6.4 5.2 92 999.3 22.1 SE 31.1 0.8 0.2
00:45 6.4 5.2 92 999.4 28.9 S 31.1 0.8 0.2
00:46 6.4 5.2 92 999.4 26.6 SE 31.1 0.8 0.2
00:47 6.4 5.2 92 999.3 20.6 SE 30.4 0.8 0.2
00:48 6.4 5.4 93 999.4 25.9 S 30.4 0.8 0.2
00:49 6.4 5.4 93 999.3 27.3 SE 30.4 0.8 0.2
00:50 6.3 5.3 93 999.3 27.3 S 30.4 0.0 0.3
00:51 6.3 5.3 93 999.3 20.6 SE 30.4 0.8 0.3
00:52 6.3 5.4 94 999.2 21.3 S 28.9 1.5 0.3
00:54 6.2 5.3 94 999.1 28.2 S 28.9 1.5 0.3
00:55 6.2 5.5 95 999.0 23.5 S 28.9 1.5 0.3
00:56 6.2 5.5 95 999.1 21.3 S 28.2 0.8 0.3
00:57 6.2 5.5 95 999.1 23.5 S 28.2 0.0 0.3
00:58 6.2 5.6 96 999.0 27.3 WSW 28.2 0.0 0.4
00:59 6.2 5.5 95 998.8 30.4 SE 30.4 0.8 0.4
01:00 6.2 5.5 95 998.7 30.4 SE 30.4 0.8 0.4
01:01 6.2 5.5 95 998.6 30.4 SE 30.4 0.8 0.4
01:02 6.1 5.5 96 998.7 29.8 SE 30.4 0.8 0.4
01:03 6.1 5.5 96 998.5 28.9 SE 30.4 0.8 0.4
01:04 6.1 5.5 96 998.5 24.4 S 30.4 0.0 0.4
01:05 6.1 5.7 97 998.6 32.7 S 32.7 0.0 0.4
01:06 6.1 5.7 97 998.4 21.3 WNW 32.7 0.0 0.4
01:07 6.1 5.7 97 998.6 23.5 S 32.7 0.0 0.4
01:08 6.2 5.8 97 998.3 25.9 SE 32.7 0.0 0.4
01:09 6.2 5.8 97 998.2 20.6 SE 32.7 0.8 0.4
01:10 6.2 5.8 97 998.4 22.1 E 32.7 0.8 0.4
01:11 6.1 5.7 97 998.3 28.9 E 32.7 0.8 0.4
01:12 6.2 5.8 97 998.2 25.1 S 32.7 0.8 0.4
01:13 6.2 5.9 98 998.2 28.2 SE 32.7 0.8 0.4
01:14 6.2 5.8 97 998.1 29.8 S 32.7 0.0 0.4
01:15 6.2 5.9 98 998.0 30.4 SE 32.7 0.0 0.4
01:17 6.2 5.9 98 998.0 20.6 S 30.4 0.0 0.4
01:18 6.2 5.9 98 997.9 18.3 NE 30.4 0.0 0.4
01:19 6.2 5.9 98 998.0 25.9 S 30.4 0.0 0.4
01:20 6.2 5.9 98 997.7 23.5 S 30.4 0.0 0.4
01:21 6.2 5.9 98 997.7 25.9 S 30.4 0.0 0.4
01:22 6.2 5.9 98 997.7 24.4 SSW 30.4 0.0 0.4
01:23 6.2 5.9 98 997.7 22.8 SSW 30.4 0.0 0.4
01:24 6.2 5.9 98 997.7 23.5 SE 30.4 0.0 0.4
01:25 6.2 5.9 98 997.7 25.1 S 30.4 0.0 0.4
01:26 6.2 5.9 98 997.5 23.5 SE 28.2 0.0 0.4
01:27 6.2 6.1 99 997.5 25.9 S 26.6 0.0 0.5
01:28 6.3 6.0 98 997.6 30.4 SE 30.4 0.8 0.5
01:29 6.3 6.2 99 997.5 23.5 S 30.4 0.8 0.5
01:30 6.3 6.2 99 997.4 23.5 WNW 30.4 0.8 0.5
01:31 6.3 6.2 99 997.2 33.6 SE 33.6 0.8 0.5
01:32 6.3 6.2 99 997.3 28.2 SE 34.2 0.8 0.6
01:33 6.3 6.2 99 997.1 34.9 SE 34.9 0.8 0.6
01:34 6.3 6.2 99 997.2 31.1 S 34.9 0.8 0.6
01:35 6.3 6.2 99 997.1 24.4 S 34.9 0.8 0.6
01:36 6.3 6.2 99 997.1 21.3 SE 34.9 0.8 0.6
01:37 6.3 6.2 99 997.0 27.3 S 34.9 0.8 0.6
01:39 6.3 6.2 99 996.9 25.1 S 34.9 0.0 0.6
01:40 6.3 6.2 99 997.0 22.8 SE 34.9 0.0 0.6
01:41 6.3 6.2 99 996.9 24.4 S 34.9 0.0 0.6
01:42 6.3 6.2 99 996.9 26.6 SE 34.9 0.0 0.6
01:43 6.4 6.3 99 996.9 32.7 S 34.9 0.0 0.6
01:44 6.3 6.2 99 996.6 25.9 SE 32.7 0.8 0.6
01:45 6.4 6.3 99 996.8 24.4 SE 32.7 0.8 0.6
01:46 6.4 6.3 99 996.7 19.0 S 32.7 0.8 0.6
01:47 6.4 6.3 99 996.6 32.0 W 32.7 0.8 0.6
01:48 6.4 6.3 99 996.7 30.4 W 32.7 0.8 0.7
01:49 6.4 6.3 99 996.5 26.6 SE 32.7 0.8 0.7
01:50 6.4 6.3 99 996.3 22.8 SE 32.7 0.8 0.7
01:51 6.4 6.3 99 996.5 21.3 WNW 32.7 0.8 0.7
01:52 6.4 6.3 99 996.3 28.9 SE 32.7 0.8 0.7
01:53 6.4 6.3 99 996.2 28.2 SE 32.0 0.8 0.7
01:54 6.4 6.3 99 996.3 24.4 S 32.0 0.0 0.7
01:55 6.4 6.3 99 996.0 23.5 SE 32.0 0.0 0.7
01:56 6.4 6.3 99 996.0 29.8 S 32.0 0.0 0.7
01:57 6.4 6.3 99 996.2 32.7 W 32.7 0.0 0.7
01:58 6.4 6.3 99 996.1 26.6 SE 32.7 0.0 0.7
01:59 6.4 6.3 99 996.0 30.4 SE 32.7 0.0 0.7
02:01 6.4 6.3 99 996.1 30.4 SE 32.7 0.0 0.7
02:02 6.5 6.4 99 996.0 19.0 S 32.7 0.0 0.7
02:03 6.5 6.4 99 996.1 28.2 SE 32.7 0.0 0.7
02:04 6.5 6.4 99 995.9 19.7 S 32.7 0.0 0.7
02:05 6.5 6.4 99 996.2 21.3 S 32.7 0.0 0.7
02:06 6.5 6.4 99 996.0 22.1 S 32.7 0.0 0.7
02:07 6.5 6.4 99 996.1 20.6 NNW 32.7 0.0 0.7
02:08 6.5 6.4 99 996.0 22.1 SE 30.4 0.0 0.7
02:09 6.5 6.4 99 995.9 32.7 S 32.7 0.0 0.8
02:10 6.5 6.4 99 995.9 28.9 SE 32.7 0.8 0.8
02:12 6.5 6.4 99 995.8 28.9 SE 32.7 1.5 0.8
02:13 6.5 6.4 99 995.9 22.1 S 32.7 1.5 0.8
02:15 6.5 6.4 99 995.7 26.6 S 32.7 0.8 0.8
02:16 6.5 6.4 99 995.5 24.4 SE 32.7 0.8 0.8
02:18 6.5 6.4 99 995.6 28.9 S 32.7 0.0 0.8
02:19 6.5 6.4 99 995.5 20.6 E 32.7 0.0 0.8
02:21 6.5 6.4 99 995.6 28.2 S 32.7 0.0 0.8
02:22 6.5 6.4 99 995.5 33.6 S 33.6 0.0 0.9
02:24 6.6 6.5 99 995.9 26.6 E 33.6 0.8 0.9
02:25 6.5 6.4 99 995.4 33.6 SE 33.6 1.5 0.9
02:27 6.5 6.4 99 995.3 33.6 SE 33.6 1.5 0.9
02:28 6.5 6.4 99 995.2 25.1 SE 33.6 0.8 0.9
02:29 6.5 6.4 99 995.3 25.9 SE 33.6 0.8 0.9
02:30 6.5 6.4 99 995.2 25.1 S 33.6 0.8 1.0
02:31 6.4 6.3 99 995.3 28.2 S 33.6 0.8 1.0
02:32 6.4 6.3 99 995.2 24.4 SE 33.6 1.5 1.1
02:33 6.4 6.3 99 995.2 29.8 SE 33.6 1.5 1.1
02:34 6.4 6.3 99 995.2 34.2 SE 34.2 1.5 1.1
02:35 6.4 6.3 99 995.0 24.4 SE 34.2 1.5 1.1
02:36 6.4 6.3 99 994.9 22.8 S 34.2 1.5 1.2
02:37 6.4 6.3 99 995.0 21.3 SE 34.2 1.5 1.2
02:38 6.4 6.3 99 995.0 21.3 SE 34.2 1.5 1.2
02:39 6.3 6.2 99 994.9 20.6 S 34.2 1.5 1.2
02:40 6.3 6.2 99 995.0 19.0 SE 34.2 1.5 1.3
02:41 6.3 6.2 99 994.8 28.9 S 34.2 2.3 1.3
02:42 6.3 6.2 99 994.8 22.1 SE 34.2 1.5 1.3
02:43 6.3 6.2 99 994.9 25.9 SE 34.2 1.5 1.4
02:45 6.3 6.2 99 995.1 32.0 S 32.0 2.3 1.4
02:46 6.3 6.2 99 994.7 28.9 S 32.0 2.3 1.6
02:47 6.3 6.2 99 994.7 27.3 S 32.0 3.0 1.6
02:48 6.3 6.2 99 994.7 22.1 SE 32.0 3.0 1.6
02:49 6.2 6.1 99 994.9 25.1 S 32.0 2.3 1.6
02:50 6.3 6.2 99 994.8 36.5 S 36.5 3.0 1.7
02:51 6.2 6.1 99 994.6 34.2 S 36.5 2.3 1.8
02:52 6.3 6.2 99 994.6 32.0 S 36.5 3.8 1.9
02:53 6.3 6.2 99 994.7 33.6 SE 36.5 4.5 2.0
02:54 6.2 6.1 99 994.7 26.6 S 36.5 5.3 2.1
02:55 6.2 6.1 99 994.7 26.6 S 36.5 5.3 2.3
02:56 6.2 6.1 99 994.7 23.5 WSW 36.5 7.6 2.5
02:57 6.2 6.1 99 994.6 25.9 WSW 36.5 6.8 2.6
02:58 6.2 6.1 99 994.6 24.4 WSW 36.5 7.6 2.6
02:59 6.2 6.1 99 994.6 17.4 SE 36.5 6.0 2.6
03:00 6.2 6.1 99 994.7 17.4 SE 34.2 6.0 2.6
03:01 6.2 6.1 99 994.7 26.6 SE 33.6 3.8 2.8
03:02 6.1 6.0 99 994.6 32.0 SE 33.6 3.8 2.8
03:03 6.1 6.0 99 994.6 28.9 S 32.0 3.0 3.0
03:06 6.0 5.9 99 994.5 27.3 S 32.0 5.3 3.1
03:07 6.0 5.9 99 994.5 31.1 SE 32.0 4.5 3.2
03:08 6.0 5.9 99 994.4 31.1 SE 32.0 6.0 3.3
03:09 6.0 5.9 99 994.6 30.4 NE 32.0 6.0 3.5
03:10 5.9 5.8 99 994.3 30.4 S 32.0 8.3 3.8
03:11 5.9 5.8 99 994.5 39.6 SE 39.6 8.3 3.8
03:12 5.9 5.8 99 994.5 32.0 WSW 39.6 9.8 4.0
03:13 6.0 5.9 99 994.6 30.4 SE 39.6 9.1 4.2
03:14 6.0 5.9 99 994.4 26.6 S 39.6 9.1 4.3
03:15 5.9 5.8 99 994.5 28.2 S 39.6 6.8 4.5
03:16 5.9 5.8 99 994.5 24.4 N 39.6 8.3 4.5
03:17 5.9 5.8 99 994.2 19.0 S 39.6 6.8 4.7
03:18 5.9 5.8 99 994.4 25.1 N 39.6 6.8 4.8
03:19 5.8 5.7 99 994.4 30.4 S 39.6 6.8 5.0
03:20 5.8 5.7 99 994.2 22.8 S 39.6 8.3 5.1
03:22 5.7 5.6 99 994.4 31.1 S 32.0 8.3 5.4
03:23 5.7 5.6 99 994.2 30.4 S 31.1 8.3 5.7
03:24 5.6 5.5 99 994.1 25.9 S 31.1 12.1 5.8
03:25 5.6 5.5 99 994.1 31.1 S 31.1 11.3 5.9
03:26 5.5 5.4 99 994.3 22.1 S 31.1 11.3 6.2
03:27 5.4 5.3 99 994.1 30.4 S 31.1 11.3 6.3
03:28 5.3 5.2 99 994.2 19.0 WSW 31.1 12.8 6.4
03:29 5.3 5.2 99 994.2 26.6 WSW 31.1 8.3 6.6
03:30 5.2 5.1 99 994.2 22.1 WSW 31.1 7.6 6.7
03:31 5.1 5.0 99 993.9 19.0 NW 31.1 8.3 7.0
03:32 5.0 4.9 99 993.9 19.0 WSW 31.1 9.8 7.1
03:33 5.0 4.9 99 994.2 15.9 S 31.1 7.6 7.2
03:34 4.9 4.8 99 993.9 23.5 S 31.1 8.3 7.3
03:36 4.8 4.7 99 993.7 21.3 WSW 30.4 10.6 7.6
03:37 4.8 4.7 99 993.7 13.6 WSW 30.4 8.3 7.7
03:38 4.7 4.6 99 993.6 18.3 S 26.6 9.1 7.9
03:39 4.7 4.6 99 993.5 19.7 WSW 26.6 8.3 7.9
03:40 4.6 4.5 99 993.5 14.5 S 25.9 9.1 8.1
03:41 4.6 4.5 99 993.5 15.2 S 25.9 6.8 8.2
03:42 4.6 4.5 99 993.3 13.6 WSW 25.9 6.8 8.3
03:43 4.5 4.4 99 993.3 19.7 WSW 25.9 6.0 8.4
03:44 4.5 4.4 99 993.2 22.1 S 25.9 8.3 8.6
03:45 4.5 4.4 99 993.2 21.3 S 25.9 6.8 8.6
03:46 4.5 4.4 99 993.2 18.3 WSW 22.1 6.0 8.8
03:47 4.5 4.4 99 993.2 16.8 S 22.1 6.8 9.0
03:48 4.4 4.3 99 992.9 13.6 S 22.1 8.3 9.1
03:49 4.4 4.3 99 992.8 13.6 S 22.1 6.0 9.2
03:50 4.4 4.3 99 992.9 15.2 S 22.1 6.8 9.3
03:51 4.4 4.3 99 992.8 15.2 SE 22.1 7.6 9.4
03:52 4.4 4.3 99 992.6 13.6 NW 22.1 7.6 9.5
03:53 4.4 4.3 99 992.5 13.0 S 22.1 6.0 9.6
03:55 4.4 4.3 99 992.4 11.4 S 18.3 5.3 9.7
03:56 4.4 4.3 99 992.3 11.4 S 18.3 5.3 9.8
03:57 4.4 4.3 99 992.3 6.0 S 16.8 4.5 9.8
03:58 4.4 4.3 99 992.0 7.6 S 15.2 4.5 9.9
03:59 4.4 4.3 99 991.8 6.9 S 15.2 3.8 10.0
04:00 4.4 4.3 99 991.8 6.9 S 15.2 3.8 10.0
04:01 4.4 4.3 99 991.6 6.9 S 15.2 2.3 10.0
04:02 4.4 4.3 99 991.5 6.9 S 13.6 1.5 10.0
04:03 4.4 4.3 99 991.5 6.9 S 13.0 0.8 10.0
04:04 4.4 4.3 99 991.3 6.9 S 11.4 0.8 10.0
04:05 4.4 4.3 99 991.3 1.6 SE 11.4 0.0 10.1
04:06 4.4 4.3 99 991.5 2.2 SE 8.3 2.3 10.1
04:07 4.5 4.4 99 991.5 4.5 S 8.3 2.3 10.1
04:08 4.5 4.4 99 991.3 4.5 WSW 7.6 2.3 10.1
04:09 4.4 4.3 99 991.4 3.1 WSW 6.9 2.3 10.1
04:11 4.4 4.3 99 991.3 5.4 WSW 6.9 0.0 10.1
04:12 4.5 4.4 99 991.5 3.8 WSW 6.9 0.0 10.1
04:14 4.5 4.4 99 991.3 5.4 WSW 6.9 0.0 10.1
04:15 4.4 4.3 99 991.4 6.0 WSW 6.0 0.0 10.1
04:17 4.4 4.3 99 991.4 5.4 WSW 6.0 0.0 10.1
04:18 4.4 4.3 99 991.3 4.5 WSW 6.0 0.0 10.1
04:20 4.5 4.4 99 991.4 3.8 WSW 6.0 0.0 10.1
04:21 4.4 4.3 99 991.4 3.8 WSW 6.0 0.0 10.1
04:23 4.4 4.3 99 991.3 3.1 WSW 6.0 0.0 10.1
04:24 4.4 4.3 99 991.2 2.2 WSW 6.0 0.0 10.1
04:26 4.5 4.4 99 991.3 1.6 WSW 5.4 0.0 10.2
04:27 4.4 4.3 99 991.2 1.6 WSW 4.5 0.8 10.2
04:28 4.5 4.4 99 991.2 2.2 WSW 4.5 0.8 10.2
04:29 4.5 4.4 99 991.3 2.2 WSW 4.5 0.8 10.2
04:30 4.5 4.4 99 991.4 2.2 WSW 4.5 0.8 10.2
04:31 4.4 4.3 99 991.3 3.1 WSW 4.5 0.8 10.2
04:32 4.4 4.3 99 991.6 3.1 WSW 4.5 0.0 10.2
04:33 4.4 4.3 99 991.5 3.1 WSW 3.1 0.0 10.2
04:35 4.4 4.3 99 991.6 2.2 WSW 3.1 0.0 10.2
04:36 4.4 4.3 99 991.5 2.2 WSW 3.1 0.0 10.2
04:37 4.4 4.3 99 991.5 2.2 WSW 3.1 0.0 10.2
04:38 4.4 4.3 99 991.7 2.2 WSW 3.1 0.0 10.2
04:39 4.4 4.3 99 991.7 2.2 WSW 3.1 0.0 10.2
04:40 4.4 4.3 99 991.7 1.6 WSW 3.1 0.0 10.2
04:41 4.4 4.3 99 991.7 2.2 WSW 3.1 0.0 10.2
04:42 4.4 4.3 99 991.8 2.2 WSW 3.1 0.0 10.2
04:43 4.4 4.3 99 991.8 2.2 WSW 3.1 0.0 10.2
04:44 4.4 4.3 99 991.8 2.2 WSW 2.2 0.0 10.2
04:45 4.4 4.3 99 991.8 3.1 WSW 3.1 0.0 10.2
04:46 4.4 4.3 99 991.8 6.0 W 6.0 0.0 10.2
04:47 4.4 4.3 99 991.8 4.5 W 6.0 0.0 10.2
04:48 4.4 4.3 99 991.8 6.0 WSW 6.0 0.0 10.2
04:49 4.5 4.4 99 991.7 6.0 WSW 6.0 0.0 10.3
04:50 4.5 4.4 99 991.9 3.1 WSW 6.0 0.8 10.3
04:51 4.5 4.4 99 991.8 3.8 WSW 6.0 0.8 10.3
04:52 4.5 4.4 99 991.9 3.8 WSW 6.0 1.5 10.3
04:54 4.5 4.4 99 992.0 4.5 WSW 6.0 1.5 10.3
04:55 4.5 4.4 99 992.0 3.1 WSW 6.0 0.8 10.3
04:56 4.5 4.4 99 992.0 3.1 WSW 6.0 1.5 10.4
04:57 4.5 4.4 99 992.0 3.8 WSW 6.0 0.8 10.4
04:58 4.5 4.4 99 992.1 4.5 WSW 6.0 0.8 10.4
04:59 4.5 4.4 99 992.0 3.8 WSW 6.0 0.8 10.4
05:00 4.5 4.4 99 992.0 3.8 WSW 4.5 0.8 10.4
05:01 4.5 4.4 99 992.1 3.8 WSW 4.5 0.0 10.4
05:02 4.5 4.4 99 992.0 3.8 WSW 4.5 0.0 10.4
05:03 4.5 4.4 99 992.0 3.8 WSW 4.5 0.0 10.4
05:04 4.5 4.4 99 992.2 3.8 WSW 4.5 0.0 10.4
05:05 4.6 4.5 99 992.2 9.2 WSW 9.2 0.0 10.4
05:06 4.6 4.5 99 992.3 8.3 W 9.2 0.0 10.5
05:07 4.6 4.5 99 992.4 13.0 WSW 13.0 0.8 10.5
05:08 4.7 4.6 99 992.5 16.8 W 18.3 0.8 10.5
05:09 4.7 4.6 99 992.4 16.8 WSW 18.3 0.8 10.5
05:10 4.7 4.6 99 992.6 12.1 WSW 18.3 0.8 10.5
05:11 4.7 4.6 99 992.6 13.6 NW 18.3 0.8 10.5
05:13 4.7 4.6 99 992.6 12.1 W 18.3 0.0 10.5
05:14 4.7 4.6 99 992.7 14.5 W 18.3 0.8 10.5
05:15 4.7 4.6 99 992.7 13.6 W 18.3 0.8 10.5
05:16 4.7 4.6 99 992.7 13.0 WSW 18.3 0.8 10.5
05:17 4.6 4.5 99 992.8 11.4 W 18.3 0.8 10.5
05:18 4.6 4.5 99 992.9 15.2 WNW 18.3 0.8 10.5
05:19 4.6 4.5 99 992.9 16.8 NW 16.8 0.0 10.6
05:20 4.6 4.5 99 992.9 20.6 W 20.6 0.8 10.6
05:21 4.6 4.5 99 992.9 13.0 W 20.6 0.8 10.6
05:22 4.5 4.4 99 992.9 12.1 WSW 20.6 1.5 10.6
05:23 4.5 4.4 99 992.9 13.6 W 20.6 1.5 10.7
05:24 4.4 4.3 99 992.9 19.7 W 20.6 2.3 10.8
05:25 4.4 4.3 99 992.9 13.6 W 20.6 2.3 10.8
05:26 4.3 4.2 99 993.0 15.2 W 20.6 3.0 10.8
05:27 4.3 4.2 99 993.0 15.2 W 20.6 2.3 10.9
05:28 4.2 4.1 99 993.2 19.0 NW 20.6 3.8 11.1
05:29 4.2 4.1 99 992.9 20.6 W 20.6 4.5 11.2
05:30 4.2 4.1 99 993.1 15.2 NW 20.6 5.3 11.3
05:31 4.2 4.1 99 993.2 9.8 W 20.6 6.0 11.5
05:33 4.1 4.0 99 993.2 13.6 WSW 20.6 9.1 11.7
05:34 4.0 3.9 99 993.2 17.4 W 20.6 9.1 11.9
05:35 4.0 3.9 99 993.3 15.2 NW 20.6 8.3 12.0
05:36 4.0 3.9 99 993.1 17.4 NW 20.6 8.3 12.0
05:37 4.0 3.9 99 993.3 17.4 W 20.6 5.3 12.1
05:38 4.0 3.9 99 993.3 14.5 W 20.6 5.3 12.2
05:39 3.9 3.8 99 993.3 12.1 W 20.6 3.8 12.2
05:40 4.0 3.9 99 993.3 13.0 NW 17.4 4.5 12.3
05:41 4.0 3.9 99 993.4 11.4 N 17.4 3.8 12.3
05:42 4.0 3.9 99 993.2 12.1 W 17.4 3.0 12.4
05:43 4.0 3.9 99 993.2 13.6 W 17.4 3.0 12.5
05:44 4.1 4.0 99 993.2 12.1 W 17.4 3.8 12.5
05:45 4.1 4.0 99 993.2 16.8 W 17.4 2.3 12.5
05:46 4.1 4.0 99 993.1 20.6 WSW 20.6 2.3 12.5
05:47 4.1 4.0 99 993.2 18.3 W 20.6 2.3 12.6
05:48 4.2 4.1 99 993.2 13.0 NW 20.6 2.3 12.7
05:49 4.2 4.1 99 992.9 19.0 NW 20.6 2.3 12.7
05:50 4.2 4.1 99 993.1 16.8 W 20.6 2.3 12.7
05:51 4.2 4.1 99 993.0 15.2 NW 20.6 1.5 12.7
05:52 4.2 4.1 99 993.1 15.2 W 20.6 2.3 12.7
05:54 4.2 4.1 99 993.3 14.5 NW 22.1 0.8 12.8
05:55 4.2 4.1 99 993.0 14.5 WSW 22.1 1.5 12.9
05:56 4.3 4.2 99 993.2 16.8 NW 22.1 3.0 12.9
05:57 4.3 4.2 99 993.1 16.8 WSW 22.1 3.0 13.0
05:58 4.3 4.2 99 993.3 23.5 W 23.5 3.0 13.0
05:59 4.3 4.2 99 993.1 23.5 NW 23.5 3.0 13.0
06:00 4.3 4.2 99 993.2 23.5 NW 23.5 3.0 13.0
06:01 4.3 4.2 99 993.3 23.5 NW 23.5 1.5 13.0
06:02 4.3 4.2 99 993.2 15.2 W 23.5 2.3 13.2
06:03 4.3 4.2 99 993.1 22.1 NW 23.5 2.3 13.2
06:04 4.3 4.2 99 993.4 17.4 W 23.5 2.3 13.2
06:05 4.3 4.2 99 993.3 22.1 W 23.5 2.3 13.2
06:06 4.3 4.2 99 993.4 13.6 N 23.5 2.3 13.2
06:07 4.3 4.2 99 993.3 21.3 NW 23.5 0.8 13.2
06:08 4.3 4.2 99 993.5 22.1 NW 23.5 0.8 13.2
06:10 4.3 4.2 99 993.8 22.8 NW 23.5 0.0 13.2
06:11 4.3 4.2 99 993.6 20.6 W 22.8 0.0 13.2
06:12 4.3 4.2 99 993.7 14.5 W 28.9 0.0 13.2
06:14 4.2 4.1 99 993.8 15.2 NW 28.9 0.0 13.2
06:15 4.2 4.1 99 993.8 17.4 NW 28.9 0.0 13.3
06:17 4.2 4.1 99 993.8 22.8 NW 28.9 0.8 13.3
06:18 4.2 4.1 99 993.7 21.3 W 28.9 0.8 13.4
06:20 4.2 4.1 99 993.8 18.3 W 28.9 1.5 13.4
06:21 4.1 4.0 99 993.7 19.7 W 28.9 0.8 13.4
06:23 4.1 4.0 99 993.8 18.3 W 22.8 0.8 13.4
06:24 4.0 3.9 99 993.6 16.8 W 22.8 0.0 13.4
06:26 4.0 3.9 99 993.7 13.0 NW 22.8 0.0 13.4
06:27 4.0 3.9 99 993.8 14.5 NW 21.3 0.0 13.4
06:28 4.0 3.9 99 993.7 13.0 NW 19.7 0.0 13.4
06:29 4.0 3.9 99 993.7 15.9 W 19.7 0.0 13.4
06:30 4.0 3.9 99 993.9 14.5 NW 19.7 0.0 13.4
06:31 4.0 3.9 99 993.8 12.1 W 19.7 0.0 13.4
06:32 4.0 3.9 99 993.9 13.6 N 18.3 0.0 13.4
06:33 4.0 3.9 99 993.8 14.5 W 18.3 0.0 13.4
06:35 4.0 3.9 99 993.8 16.8 W 16.8 0.0 13.4
06:36 4.0 3.9 99 994.0 13.6 W 16.8 0.8 13.4
06:37 4.0 3.9 99 993.8 15.9 NW 16.8 0.8 13.4
06:38 4.0 3.9 99 993.9 13.6 W 16.8 0.8 13.4
06:39 4.1 4.0 99 993.9 18.3 NW 18.3 0.8 13.4
06:40 4.1 4.0 99 994.1 18.3 NW 18.3 0.8 13.4
06:41 4.1 4.0 99 994.0 15.9 W 18.3 0.0 13.4
06:42 4.2 4.1 99 994.1 17.4 W 18.3 0.0 13.4
06:43 4.3 4.2 99 994.2 15.9 W 18.3 0.0 13.4
06:44 4.3 4.2 99 994.2 15.9 W 18.3 0.0 13.4
06:45 4.4 4.3 99 994.1 19.0 NW 19.0 0.0 13.4
06:46 4.4 4.3 99 994.1 20.6 W 20.6 0.0 13.4
06:47 4.4 4.3 99 994.2 21.3 NW 21.3 0.0 13.4
06:48 4.5 4.4 99 994.3 17.4 W 21.3 0.0 13.4
06:50 4.5 4.4 99 994.3 16.8 W 21.3 0.0 13.4
06:51 4.5 4.4 99 994.3 17.4 NW 21.3 0.0 13.4
06:52 4.5 4.4 99 994.2 17.4 NW 21.3 0.0 13.4
06:53 4.6 4.5 99 994.4 15.2 N 21.3 0.0 13.4
06:54 4.6 4.5 99 994.4 19.0 W 21.3 0.0 13.4
06:55 4.6 4.5 99 994.3 16.8 W 21.3 0.0 13.4
06:56 4.6 4.5 99 994.5 11.4 W 21.3 0.0 13.4
06:57 4.7 4.6 99 994.5 17.4 NW 21.3 0.0 13.4
06:58 4.7 4.6 99 994.6 19.0 W 19.0 0.0 13.4
06:59 4.7 4.6 99 994.6 19.0 NW 19.0 0.0 13.4
07:00 4.7 4.6 99 994.6 19.0 NW 19.0 0.0 13.4
07:01 4.7 4.6 99 994.5 19.0 NW 19.0 0.0 13.4
07:02 4.7 4.6 99 994.6 16.8 NW 19.0 0.0 13.4
07:03 4.8 4.7 99 994.6 19.0 W 22.8 0.0 13.4
07:04 4.8 4.7 99 994.8 11.4 NW 22.8 0.0 13.4
07:05 4.7 4.6 99 994.8 19.7 W 22.8 0.0 13.4
07:06 4.8 4.7 99 994.6 16.8 WSW 22.8 0.0 13.4
07:07 4.8 4.7 99 995.0 13.6 W 22.8 0.0 13.4
07:08 4.8 4.7 99 995.0 19.0 NW 22.8 0.0 13.4
07:09 4.8 4.7 99 995.0 19.7 NW 22.8 0.0 13.4
07:10 4.8 4.7 99 995.0 14.5 W 22.8 0.0 13.4
07:11 4.9 4.8 99 995.1 16.8 WNW 22.8 0.0 13.4
07:12 4.9 4.8 99 995.2 15.2 NW 22.8 0.0 13.4
07:13 4.9 4.8 99 995.1 15.2 NW 19.7 0.0 13.4
07:14 4.9 4.8 99 995.3 19.0 W 19.7 0.0 13.4
07:15 4.9 4.8 99 995.2 14.5 W 19.7 0.0 13.4
07:16 4.9 4.8 99 995.2 18.3 W 19.7 0.0 13.4
07:17 4.9 4.8 99 995.3 13.6 N 19.7 0.0 13.4
07:18 4.9 4.8 99 995.4 16.8 W 19.7 0.0 13.4
07:19 4.9 4.8 99 995.4 15.2 W 19.7 0.0 13.4
07:20 5.0 4.9 99 995.5 19.0 NW 19.0 0.0 13.4
07:21 4.9 4.8 99 995.5 21.3 W 21.3 0.0 13.4
07:22 5.0 4.9 99 995.6 21.3 W 21.3 0.0 13.4
07:23 4.9 4.8 99 995.5 21.3 W 21.3 0.0 13.5
07:24 5.0 4.9 99 995.7 21.3 W 21.3 0.8 13.5
07:25 4.9 4.8 99 995.6 25.1 W 25.1 0.8 13.5
07:26 5.0 4.9 99 995.9 21.3 WSW 25.1 0.8 13.5
07:27 4.9 4.8 99 995.6 22.8 WSW 25.1 0.8 13.5
07:28 4.9 4.8 99 995.5 22.8 W 25.1 0.8 13.5
07:29 4.9 4.8 99 995.7 17.4 W 25.1 0.0 13.5
07:30 4.9 4.8 99 995.7 19.7 NE 25.1 0.0 13.5
07:31 4.9 4.8 99 995.6 18.3 WSW 25.1 0.0 13.5
07:32 4.9 4.8 99 995.8 13.6 W 25.1 0.0 13.5
07:33 4.9 4.8 99 995.7 19.7 NW 25.1 0.0 13.5
07:34 4.9 4.8 99 995.8 18.3 NW 25.1 0.0 13.5
07:35 4.9 4.8 99 995.7 21.3 S 25.1 0.0 13.5
07:36 4.9 4.8 99 995.9 24.4 W 24.4 0.0 13.5
07:37 4.8 4.7 99 995.8 24.4 NW 24.4 0.0 13.5
07:38 4.9 4.8 99 995.8 24.4 WNW 24.4 0.0 13.5
07:39 4.8 4.7 99 996.0 22.1 W 24.4 0.0 13.5
07:40 4.8 4.7 99 995.8 25.9 NW 25.9 0.0 13.5
07:41 4.8 4.7 99 996.1 21.3 NW 25.9 0.0 13.5
07:42 4.8 4.7 99 996.1 17.4 N 25.9 0.0 13.5
07:43 4.7 4.6 99 996.0 18.3 NW 25.9 0.0 13.5
07:44 4.6 4.5 99 996.0 22.8 NW 25.9 0.0 13.5
07:46 4.6 4.5 99 996.1 20.6 W 25.9 0.0 13.5
07:47 4.6 4.5 99 996.2 18.3 W 25.9 0.0 13.5
07:48 4.6 4.5 99 996.2 19.0 W 25.9 0.0 13.5
07:49 4.6 4.5 99 996.2 13.0 W 25.9 0.0 13.5
07:50 4.6 4.5 99 996.3 13.6 W 25.9 0.0 13.5
07:51 4.6 4.5 99 996.4 17.4 NW 22.8 0.0 13.5
07:52 4.6 4.5 99 996.4 15.9 W 22.8 0.0 13.5
07:53 4.7 4.6 99 996.3 15.9 NW 22.8 0.0 13.5
07:54 4.7 4.6 99 996.4 17.4 W 24.4 0.0 13.5
07:55 4.7 4.6 99 996.4 13.0 WNW 24.4 0.0 13.5
07:56 4.7 4.6 99 996.4 15.9 W 24.4 0.0 13.5
07:57 4.7 4.6 99 996.4 13.0 W 24.4 0.0 13.5
07:58 4.7 4.6 99 996.6 18.3 NW 24.4 0.0 13.5
07:59 4.7 4.6 99 996.3 18.3 NE 24.4 0.0 13.5
08:00 4.7 4.6 99 996.5 18.3 NE 24.4 0.0 13.5
08:01 4.7 4.6 99 996.7 18.3 NE 24.4 0.0 13.5
08:02 4.7 4.6 99 996.5 18.3 SE 24.4 0.0 13.5
08:03 4.7 4.6 99 996.6 13.6 NNW 24.4 0.8 13.5
08:04 4.7 4.6 99 996.7 20.6 NNW 20.6 0.8 13.5
08:05 4.7 4.6 99 996.8 23.5 W 23.5 0.8 13.5
08:06 4.7 4.6 99 996.8 19.7 NW 23.5 0.8 13.5
08:07 4.7 4.6 99 996.7 22.1 SW 23.5 0.8 13.5
08:08 4.7 4.6 99 996.9 16.8 SW 23.5 0.0 13.5
08:10 4.7 4.6 99 996.8 19.7 W 24.4 0.0 13.5
08:11 4.7 4.6 99 996.9 15.9 W 24.4 0.0 13.5
08:12 4.6 4.5 99 997.0 21.3 NW 24.4 0.0 13.5
08:13 4.7 4.6 99 997.2 17.4 W 24.4 0.0 13.5
08:15 4.6 4.5 99 997.0 15.2 W 24.4 0.0 13.5
08:16 4.7 4.6 99 997.2 18.3 SW 27.3 0.0 13.5
08:17 4.6 4.5 99 997.1 19.0 W 27.3 0.0 13.5
08:19 4.6 4.5 99 997.2 15.2 W 27.3 0.0 13.5
08:20 4.6 4.5 99 997.0 16.8 W 27.3 0.0 13.5
08:22 4.7 4.6 99 997.3 15.2 NW 27.3 0.0 13.5
08:23 4.7 4.6 99 997.4 16.8 W 27.3 0.0 13.5
08:25 4.7 4.6 99 997.6 15.2 W 27.3 0.0 13.5
08:26 4.7 4.6 99 997.3 32.0 NW 32.0 0.0 13.5
08:28 4.7 4.6 99 997.5 18.3 NW 32.0 0.0 13.5
08:29 4.6 4.5 99 997.5 22.8 NW 32.0 0.0 13.5
08:30 4.7 4.6 99 997.6 16.8 SW 32.0 0.0 13.5
08:32 4.7 4.6 99 997.3 19.7 NW 32.0 0.0 13.5
08:33 4.7 4.6 99 997.5 19.7 NW 32.0 0.0 13.5
08:35 4.6 4.5 99 997.3 19.7 NW 32.0 0.0 13.5
08:36 4.7 4.6 99 997.5 29.8 SW 32.0 0.0 13.5
08:37 4.7 4.6 99 997.5 21.3 SW 29.8 0.0 13.5
08:38 4.7 4.6 99 997.6 15.9 NW 29.8 0.0 13.5
08:39 4.7 4.6 99 997.6 19.7 W 29.8 0.0 13.5
08:40 4.8 4.7 99 997.6 15.9 NW 29.8 0.0 13.5
08:41 4.8 4.7 99 997.7 22.8 W 29.8 0.0 13.5
08:42 4.8 4.7 99 997.6 22.1 NW 29.8 0.0 13.5
08:43 4.8 4.7 99 997.6 18.3 WNW 29.8 0.0 13.5
08:44 4.8 4.7 99 997.7 17.4 W 29.8 0.0 13.5
08:45 4.8 4.7 99 997.9 10.7 SW 29.8 0.0 13.5
08:46 4.9 4.8 99 997.9 10.7 NW 29.8 0.0 13.5
08:47 4.8 4.7 99 998.0 19.7 W 22.8 0.0 13.5
08:48 4.8 4.7 99 997.8 11.4 NW 22.8 0.0 13.5
08:49 4.9 4.8 99 997.7 22.1 SW 22.8 0.0 13.5
08:50 4.8 4.7 99 997.9 23.5 NW 23.5 0.0 13.5
08:51 4.8 4.7 99 997.9 20.6 W 23.5 0.0 13.5
08:52 4.8 4.7 99 998.0 16.8 WNW 23.5 0.0 13.5
08:53 4.8 4.5 98 997.9 20.6 W 23.5 0.0 13.5
08:54 4.8 4.5 98 998.0 15.2 W 23.5 0.0 13.5
08:55 4.8 4.5 98 997.9 22.1 W 23.5 0.0 13.5
08:56 4.8 4.5 98 998.1 22.1 NW 23.5 0.0 13.5
08:57 4.8 4.5 98 998.1 16.8 NW 23.5 0.0 13.5
08:58 4.8 4.5 98 998.1 14.5 NW 23.5 0.0 13.5
08:59 4.8 4.5 98 998.1 16.8 NW 23.5 0.0 13.5
09:00 4.8 4.5 98 998.1 16.8 NW 23.5 0.0 13.5
09:01 4.8 4.5 98 997.9 16.8 NW 22.1 0.0 13.5
09:02 4.8 4.5 98 998.2 19.0 W 22.1 0.0 13.5
09:03 4.8 4.5 98 998.2 16.8 NW 22.1 0.0 13.5
09:04 4.8 4.5 98 998.2 19.7 W 22.1 0.0 13.5
09:05 4.8 4.5 98 998.3 20.6 W 22.1 0.0 13.5
09:06 4.8 4.5 98 998.3 19.7 NW 20.6 0.0 13.5
09:07 4.9 4.5 97 998.5 18.3 W 20.6 0.0 13.5
09:08 4.9 4.5 97 998.3 23.5 W 23.5 0.0 13.5
09:09 4.9 4.5 97 998.3 22.1 W 24.4 0.0 13.5
09:10 4.9 4.5 97 998.4 19.7 NW 24.4 0.0 13.5
09:12 4.9 4.5 97 998.5 17.4 NW 24.4 0.0 13.5
09:13 4.9 4.5 97 998.5 16.8 NW 24.4 0.0 13.5
09:14 5.0 4.6 97 998.6 17.4 NW 24.4 0.0 13.5
09:15 5.0 4.6 97 998.4 19.7 NW 24.4 0.0 13.5
09:16 5.0 4.6 97 998.6 24.4 W 24.4 0.0 13.5
09:17 5.0 4.6 97 998.7 18.3 W 24.4 0.0 13.5
09:18 5.0 4.6 97 998.7 19.7 E 24.4 0.0 13.5
09:19 5.0 4.6 97 998.7 19.7 N 24.4 0.0 13.5
09:20 5.0 4.6 97 998.6 24.4 W 24.4 0.0 13.5
09:21 5.0 4.6 97 998.7 16.8 NW 24.4 0.0 13.5
09:22 5.0 4.6 97 998.7 25.1 NW 25.1 0.0 13.5
09:23 5.0 4.6 97 998.8 18.3 W 25.1 0.0 13.5
09:24 5.0 4.6 97 998.8 16.8 W 25.1 0.0 13.5
09:25 5.0 4.6 97 998.8 16.8 NW 25.1 0.0 13.5
09:26 5.0 4.6 97 998.7 14.5 W 25.1 0.0 13.5
09:27 4.9 4.5 97 998.8 23.5 NW 25.1 0.0 13.5
09:28 4.9 4.5 97 998.8 22.1 E 25.1 0.0 13.5
09:29 4.9 4.5 97 998.7 26.6 NW 26.6 0.0 13.5
09:30 4.9 4.5 97 998.6 26.6 NW 26.6 0.0 13.5
09:31 4.9 4.5 97 998.9 22.1 NW 26.6 0.0 13.5
09:32 4.8 4.4 97 999.0 23.5 NW 26.6 0.0 13.5
09:33 4.8 4.4 97 999.0 25.9 W 26.6 0.0 13.5
09:34 4.8 4.4 97 999.0 22.1 W 26.6 0.0 13.5
09:35 4.8 4.4 97 999.1 20.6 NW 26.6 0.0 13.5
09:36 4.8 4.2 96 999.2 15.9 NW 26.6 0.0 13.5
09:37 4.8 4.2 96 999.0 17.4 NW 26.6 0.0 13.5
09:38 4.7 4.1 96 999.2 20.6 W 26.6 0.0 13.5
09:39 4.8 4.2 96 999.2 14.5 W 26.6 0.0 13.5
09:40 4.7 4.1 96 999.2 14.5 NW 25.9 0.0 13.5
09:41 4.8 4.2 96 999.2 14.5 NW 25.9 0.0 13.5
09:42 4.8 4.2 96 999.3 13.6 W 25.9 0.0 13.5
09:43 4.8 4.2 96 999.3 10.7 NW 25.9 0.0 13.5
09:45 4.8 4.2 96 999.4 11.4 SW 20.6 0.0 13.5
09:46 4.8 4.2 96 999.3 13.0 W 20.6 0.0 13.5
09:47 4.8 4.2 96 999.3 11.4 W 20.6 0.0 13.5
09:48 4.9 4.3 96 999.3 19.7 W 20.6 0.0 13.5
09:49 4.8 4.2 96 999.2 21.3 W 21.3 0.0 13.5
09:50 4.9 4.3 96 999.3 20.6 NW 21.3 0.0 13.5
09:51 4.9 4.3 96 999.4 15.9 W 21.3 0.0 13.5
09:53 5.0 4.4 96 999.2 15.2 W 21.3 0.0 13.5
09:54 5.0 4.4 96 999.3 17.4 NW 21.3 0.0 13.5
09:55 5.0 4.4 96 999.2 21.3 W 21.3 0.0 13.5
09:56 5.0 4.4 96 999.3 16.8 W 21.3 0.0 13.5
09:57 5.1 4.5 96 999.3 21.3 W 21.3 0.0 13.5
09:58 5.1 4.5 96 999.4 17.4 W 21.3 0.0 13.5
09:59 5.1 4.5 96 999.5 15.9 W 21.3 0.0 13.5
10:00 5.1 4.5 96 999.6 18.3 NW 21.3 0.0 13.5
10:01 5.1 4.5 96 999.5 18.3 NW 21.3 0.0 13.5
10:02 5.1 4.5 96 999.6 18.3 NW 21.3 0.0 13.5
10:03 5.1 4.5 96 999.7 18.3 NW 21.3 0.0 13.5
10:04 5.1 4.5 96 999.7 18.3 NW 21.3 0.0 13.5
10:05 5.1 4.5 96 999.5 18.3 NW 21.3 0.0 13.5
10:06 5.1 4.5 96 999.6 19.0 N 22.1 0.0 13.5
10:07 5.1 4.5 96 999.7 21.3 WNW 22.1 0.0 13.5
10:09 5.0 4.4 96 999.5 24.4 W 24.4 0.0 13.5
10:10 5.0 4.4 96 999.6 10.7 W 24.4 0.0 13.5
10:12 5.0 4.4 96 999.7 21.3 W 24.4 0.0 13.5
10:13 5.1 4.5 96 999.7 19.0 NW 24.4 0.0 13.5
10:15 5.1 4.4 95 999.6 16.8 NW 24.4 0.0 13.5
10:16 5.1 4.4 95 999.5 18.3 W 24.4 0.0 13.5
10:18 5.2 4.3 94 999.8 16.8 W 24.4 0.0 13.5
10:19 5.2 4.3 94 999.7 18.3 W 21.3 0.0 13.5
10:21 5.3 4.4 94 999.8 21.3 W 22.1 0.0 13.5
10:22 5.3 4.3 93 999.9 16.8 S 23.5 0.0 13.5
10:23 5.3 4.3 93 1000.0 20.6 W 23.5 0.0 13.5
10:25 5.4 4.4 93 999.9 21.3 W 23.5 0.0 13.5
10:26 5.4 4.4 93 999.9 11.4 W 23.5 0.0 13.5
10:28 5.5 4.5 93 999.9 15.9 NW 23.5 0.0 13.5
10:29 5.5 4.5 93 1000.0 18.3 N 23.5 0.0 13.5
10:30 5.5 4.5 93 1000.1 22.8 W 23.5 0.0 13.5
10:31 5.5 4.5 93 1000.2 15.2 W 23.5 0.0 13.5
10:32 5.5 4.5 93 1000.2 16.8 NW 22.8 0.0 13.5
10:33 5.5 4.5 93 1000.1 18.3 NW 22.8 0.0 13.5
10:34 5.5 4.3 92 1000.2 11.4 W 22.8 0.0 13.5
10:35 5.4 4.2 92 1000.2 18.3 NW 22.8 0.0 13.5
10:36 5.4 4.4 93 1000.2 13.6 W 22.8 0.0 13.5
10:37 5.4 4.2 92 1000.2 17.4 W 22.8 0.0 13.5
10:39 5.4 4.2 92 1000.2 13.6 W 22.8 0.0 13.5
10:40 5.4 4.2 92 1000.2 16.8 NW 18.3 0.0 13.5
10:41 5.4 4.4 93 1000.3 11.4 NW 18.3 0.0 13.5
10:42 5.4 4.4 93 1000.2 10.7 W 18.3 0.0 13.5
10:43 5.3 4.3 93 1000.3 14.5 NW 18.3 0.0 13.5
10:44 5.4 4.4 93 1000.4 11.4 W 18.3 0.0 13.5
10:45 5.4 4.4 93 1000.3 10.7 SW 18.3 0.0 13.5
10:46 5.4 4.4 93 1000.4 15.9 NW 17.4 0.0 13.5
10:47 5.5 4.5 93 1000.3 19.7 W 22.1 0.0 13.5
10:48 5.5 4.5 93 1000.4 19.0 NW 22.1 0.0 13.5
10:49 5.5 4.5 93 1000.4 20.6 W 22.1 0.0 13.5
10:50 5.6 4.4 92 1000.4 15.9 W 22.1 0.0 13.5
10:51 5.6 4.6 93 1000.3 13.0 W 22.1 0.0 13.5
10:52 5.5 4.3 92 1000.5 14.5 W 22.1 0.0 13.5
10:53 5.6 4.4 92 1000.3 16.8 W 22.1 0.0 13.5
10:54 5.6 4.4 92 1000.6 21.3 W 22.1 0.0 13.5
10:55 5.6 4.4 92 1000.8 15.2 W 22.1 0.0 13.5
10:56 5.6 4.4 92 1000.7 19.0 W 22.1 0.0 13.5
10:57 5.6 4.4 92 1000.7 15.9 N 21.3 0.0 13.5
10:58 5.6 4.4 92 1000.5 17.4 W 21.3 0.0 13.5
10:59 5.6 4.4 92 1000.6 15.9 W 21.3 0.0 13.5
11:01 5.6 4.4 92 1000.7 15.9 W 21.3 0.0 13.5
11:02 5.7 4.5 92 1000.6 16.8 W 21.3 0.0 13.5
11:03 5.7 4.5 92 1000.7 10.7 W 21.3 0.0 13.5
11:04 5.7 4.5 92 1000.8 12.1 NW 21.3 0.0 13.5
11:05 5.7 4.5 92 1000.9 13.0 W 19.0 0.0 13.5
11:06 5.7 4.5 92 1000.7 16.8 W 19.0 0.0 13.5
11:07 5.8 4.6 92 1000.7 16.8 NW 19.0 0.0 13.5
11:08 5.8 4.4 91 1000.6 19.0 NW 19.0 0.0 13.5
11:09 5.9 4.5 91 1000.7 18.3 W 19.0 0.0 13.5
11:10 5.9 4.5 91 1000.7 17.4 NW 19.0 0.0 13.5
11:11 6.0 4.6 91 1000.8 15.2 NNW 19.0 0.0 13.5
11:12 6.0 4.6 91 1000.7 16.8 NW 19.0 0.0 13.5
11:13 6.0 4.6 91 1000.8 17.4 W 19.0 0.0 13.5
11:14 6.1 4.7 91 1000.8 15.9 NW 19.0 0.0 13.5
11:15 6.2 4.8 91 1000.8 16.8 WNW 19.0 0.0 13.5
11:16 6.2 4.8 91 1000.8 17.4 NE 19.0 0.0 13.5
11:17 6.2 4.8 91 1000.9 14.5 W 19.0 0.0 13.5
11:18 6.3 4.8 90 1000.7 17.4 W 19.0 0.0 13.5
11:19 6.3 4.8 90 1000.8 20.6 SW 20.6 0.0 13.5
11:20 6.2 4.7 90 1000.8 23.5 NW 23.5 0.0 13.5
11:21 6.2 4.7 90 1001.1 17.4 W 23.5 0.0 13.5
11:22 6.2 4.7 90 1001.0 13.0 W 23.5 0.0 13.5
11:23 6.1 4.6 90 1001.0 22.1 W 23.5 0.0 13.5
11:24 6.1 4.4 89 1001.0 19.0 NW 23.5 0.8 13.6
11:25 5.9 4.4 90 1001.1 12.1 W 23.5 0.8 13.6
11:26 5.9 4.4 90 1001.1 13.0 NW 23.5 0.8 13.6
11:27 5.8 4.1 89 1001.2 15.2 W 23.5 0.8 13.6
11:28 5.8 4.1 89 1001.1 12.1 W 23.5 0.8 13.6
11:29 5.7 4.2 90 1001.1 14.5 NW 23.5 0.0 13.6
11:30 5.7 4.2 90 1001.2 16.8 NW 22.1 0.0 13.6
11:32 5.6 4.1 90 1001.3 21.3 WNW 22.1 0.0 13.6
11:33 5.6 4.1 90 1001.4 22.8 NW 22.8 0.0 13.6
11:34 5.6 4.1 90 1001.3 19.0 NW 22.8 0.0 13.6
11:35 5.4 3.9 90 1001.5 21.3 NW 22.8 0.0 13.6
11:36 5.4 3.9 90 1001.6 15.9 W 22.8 0.8 13.7
11:37 5.2 3.7 90 1001.6 9.2 NW 22.8 0.8 13.7
11:38 5.2 3.7 90 1001.5 9.8 NW 22.8 0.8 13.7
11:39 5.0 3.5 90 1001.4 16.8 NW 22.8 0.8 13.7
11:40 5.0 3.5 90 1001.5 11.4 W 22.8 1.5 13.7
11:41 4.9 3.4 90 1001.6 15.2 W 22.8 0.8 13.7
11:42 4.8 3.3 90 1001.7 14.5 W 22.8 0.8 13.7
11:43 4.8 3.3 90 1001.6 19.7 W 22.8 0.8 13.7
11:44 4.7 3.2 90 1001.7 10.7 N 21.3 0.8 13.7
11:45 4.6 3.1 90 1001.7 12.1 NE 21.3 0.0 13.7
11:46 4.6 3.1 90 1001.6 12.1 W 19.7 0.0 13.7
11:47 4.6 3.3 91 1001.5 15.9 SE 19.7 0.0 13.7
11:48 4.6 3.3 91 1001.7 13.0 W 19.7 0.0 13.7
11:49 4.6 3.3 91 1001.7 8.3 W 19.7 0.0 13.7
11:50 4.6 3.3 91 1001.7 11.4 W 19.7 0.0 13.7
11:51 4.6 3.3 91 1001.5 14.5 W 19.7 0.0 13.7
11:52 4.6 3.3 91 1001.5 9.8 NW 19.7 0.0 13.7
11:53 4.7 3.5 92 1001.7 13.0 W 19.7 0.0 13.7
11:54 4.7 3.5 92 1001.5 13.0 N 15.9 0.0 13.7
11:55 4.8 3.6 92 1001.6 16.8 W 17.4 0.0 13.7
11:56 4.9 3.7 92 1001.8 18.3 W 18.3 0.0 13.7
11:57 4.9 3.7 92 1001.8 18.3 W 18.3 0.0 13.8
11:58 5.0 3.8 92 1001.8 21.3 NW 21.3 0.8 13.8
11:59 5.0 3.8 92 1001.9 22.1 NW 22.1 0.8 13.8
12:00 5.0 3.8 92 1001.9 22.1 NW 22.1 0.8 13.8
12:01 5.0 3.8 92 1002.0 22.1 NW 22.1 0.8 13.8
12:02 5.0 3.8 92 1002.0 22.1 NW 22.1 0.8 13.8
12:03 5.0 3.8 92 1001.8 22.1 NW 22.1 0.0 13.8
12:04 5.0 3.8 92 1002.0 22.1 NW 22.1 0.0 13.8
12:05 4.8 3.6 92 1002.0 12.1 NW 22.1 0.0 13.8
12:06 4.8 3.6 92 1002.1 15.2 W 22.1 0.0 13.8
12:07 4.8 3.6 92 1002.2 11.4 NE 22.1 0.0 13.8
12:09 4.7 3.5 92 1001.9 15.9 NW 22.1 0.0 13.8
12:11 4.7 3.5 92 1002.0 13.6 W 22.1 0.0 13.8
12:12 4.8 3.6 92 1001.9 15.9 NW 22.1 0.0 13.8
12:14 4.8 3.6 92 1001.9 13.0 W 22.1 0.0 13.8
12:15 4.8 3.6 92 1002.2 12.1 WNW 16.8 0.0 13.8
12:17 4.9 3.7 92 1002.2 13.6 SW 16.8 0.0 13.8
12:19 4.9 3.7 92 1002.3 16.8 NW 16.8 0.0 13.8
12:20 4.8 3.6 92 1002.2 17.4 W 17.4 0.0 13.8
12:22 4.9 3.7 92 1002.3 13.0 W 17.4 0.0 13.8
12:23 4.9 3.7 92 1002.3 20.6 W 20.6 0.0 13.8
12:25 4.9 3.7 92 1002.4 13.6 N 20.6 0.0 13.8
12:26 4.9 3.7 92 1002.3 10.7 NW 20.6 0.0 13.8
12:27 4.9 3.7 92 1002.3 13.6 W 20.6 0.0 13.8
12:28 4.9 3.7 92 1002.4 10.7 NW 20.6 0.0 13.8
12:29 4.9 3.7 92 1002.5 15.2 W 20.6 0.0 13.8
12:30 4.9 3.7 92 1002.3 13.6 N 20.6 0.0 13.8
12:31 4.8 3.6 92 1002.3 15.9 NW 20.6 0.0 13.8
12:32 4.8 3.6 92 1002.4 17.4 W 20.6 0.8 13.9
12:34 4.8 3.6 92 1002.4 11.4 NW 17.4 0.8 13.9
12:35 4.8 3.6 92 1002.4 11.4 NW 17.4 0.8 13.9
12:36 4.8 3.6 92 1002.5 12.1 W 17.4 0.8 13.9
12:37 4.8 3.6 92 1002.4 14.5 W 17.4 0.0 13.9
12:38 4.8 3.6 92 1002.5 13.6 W 17.4 0.0 13.9
12:39 4.7 3.5 92 1002.5 10.7 NW 17.4 0.0 13.9
12:40 4.7 3.5 92 1002.3 19.0 NW 19.0 0.0 13.9
12:41 4.8 3.8 93 1002.6 22.1 W 22.1 0.0 13.9
12:42 4.8 3.8 93 1002.6 19.0 W 22.1 0.0 13.9
12:43 4.9 3.9 93 1002.7 14.5 NW 22.1 0.0 13.9
12:44 4.9 3.9 93 1002.8 13.6 W 22.1 0.0 13.9
12:45 5.0 4.0 93 1002.9 14.5 W 22.1 0.0 13.9
12:46 4.9 3.7 92 1002.9 22.8 NW 22.8 0.0 13.9
12:47 4.9 3.7 92 1002.7 22.8 NW 22.8 0.0 13.9
12:48 4.7 3.5 92 1002.8 17.4 W 22.8 0.0 13.9
12:49 4.7 3.5 92 1002.7 12.1 NW 22.8 0.0 13.9
12:50 4.6 3.4 92 1002.9 9.8 W 22.8 0.8 13.9
12:51 4.6 3.4 92 1002.9 10.7 W 22.8 0.8 13.9
12:52 4.5 3.3 92 1002.9 15.2 W 22.8 1.5 14.0
12:53 4.5 3.3 92 1002.8 15.9 W 22.8 1.5 14.0
12:54 4.5 3.3 92 1003.0 15.9 W 22.8 3.0 14.1
12:55 4.5 3.3 92 1002.8 17.4 NW 22.8 2.3 14.1
12:56 4.5 3.3 92 1003.0 11.4 W 22.8 3.0 14.2
12:57 4.5 3.5 93 1003.1 14.5 W 17.4 2.3 14.2
12:58 4.5 3.5 93 1003.1 18.3 WNW 18.3 2.3 14.2
12:59 4.6 3.6 93 1002.9 13.0 W 18.3 0.8 14.2
13:00 4.6 3.6 93 1003.1 13.0 W 18.3 0.8 14.2
13:01 4.6 3.6 93 1003.1 11.4 NW 18.3 0.0 14.2
13:02 4.6 3.6 93 1003.0 9.2 NW 18.3 0.8 14.2
13:03 4.7 3.7 93 1003.2 9.2 W 18.3 0.8 14.2
13:04 4.8 3.9 94 1003.1 9.8 W 18.3 0.8 14.2
13:05 4.9 4.0 94 1002.9 19.7 SW 19.7 0.8 14.3
13:06 4.9 4.0 94 1003.0 22.1 W 22.1 1.5 14.3
13:07 5.0 4.1 94 1003.2 23.5 W 23.5 0.8 14.3
13:08 5.0 4.1 94 1003.1 13.6 NE 23.5 0.8 14.3
13:09 5.0 4.1 94 1003.2 14.5 W 23.5 0.8 14.3
13:11 5.0 4.0 93 1003.5 18.3 W 23.5 0.0 14.3
13:12 5.0 4.0 93 1003.4 13.6 W 23.5 0.0 14.3
13:13 5.0 4.0 93 1003.2 9.8 W 23.5 0.0 14.3
13:14 5.0 4.0 93 1003.3 13.6 W 23.5 0.0 14.3
13:15 5.0 4.0 93 1003.3 16.8 NW 23.5 0.0 14.3
13:16 5.0 4.0 93 1003.2 15.9 W 23.5 0.0 14.3
13:17 5.0 4.0 93 1003.3 9.8 W 23.5 0.0 14.3
13:18 5.0 4.0 93 1003.5 15.9 NW 18.3 0.0 14.3
13:19 5.0 4.0 93 1003.4 10.7 W 18.3 0.0 14.3
13:20 5.0 4.0 93 1003.2 16.8 W 18.3 0.0 14.3
13:22 5.0 4.0 93 1003.4 13.0 NW 16.8 0.0 14.3
13:23 4.9 3.9 93 1003.6 12.1 W 16.8 0.0 14.3
13:24 5.0 4.0 93 1003.4 14.5 W 16.8 0.0 14.3
13:25 5.0 4.0 93 1003.5 17.4 W 17.4 0.0 14.3
13:26 4.9 3.7 92 1003.4 11.4 W 17.4 0.0 14.3
13:27 5.0 3.8 92 1003.6 15.9 NW 17.4 0.0 14.3
13:28 5.0 3.8 92 1003.6 12.1 N 17.4 0.0 14.3
13:29 5.0 3.8 92 1003.4 14.5 SW 17.4 0.0 14.3
13:30 4.9 3.7 92 1003.6 12.1 W 17.4 0.0 14.3
13:31 4.9 3.7 92 1003.6 13.0 W 17.4 0.0 14.3
13:32 4.9 3.7 92 1003.7 10.7 W 17.4 0.0 14.3
13:33 4.9 3.7 92 1003.5 9.2 SW 17.4 0.0 14.3
13:34 4.9 3.7 92 1003.5 10.7 NW 17.4 0.0 14.3
13:36 4.9 3.7 92 1003.5 9.8 NW 15.9 0.0 14.3
13:37 4.9 3.7 92 1003.6 16.8 W 16.8 0.0 14.3
13:38 5.0 3.8 92 1003.5 15.2 W 16.8 0.0 14.3
13:39 5.0 3.8 92 1003.7 16.8 W 16.8 0.0 14.3
13:40 5.0 3.8 92 1003.6 13.6 N 16.8 0.0 14.3
13:42 5.0 3.8 92 1003.5 17.4 W 17.4 0.0 14.3
13:43 5.1 3.8 91 1003.7 14.5 W 17.4 0.0 14.3
13:44 5.1 3.8 91 1003.8 14.5 NW 17.4 0.0 14.3
13:45 5.1 3.8 91 1003.8 14.5 W 17.4 0.0 14.3
13:46 5.2 3.9 91 1003.5 19.0 SW 19.0 0.0 14.3
13:47 5.2 3.9 91 1003.5 12.1 W 19.0 0.0 14.3
13:49 5.4 4.1 91 1003.5 16.8 W 19.0 0.0 14.3
13:50 5.4 4.1 91 1003.7 15.9 W 19.0 0.0 14.3
13:51 5.6 4.2 91 1003.7 16.8 NW 19.0 0.0 14.3
13:52 5.6 4.2 91 1003.6 14.5 NW 19.0 0.0 14.3
13:53 5.7 4.2 90 1003.8 13.0 NW 19.0 0.0 14.3
13:54 5.8 4.3 90 1003.7 18.3 NW 19.0 0.0 14.3
13:55 5.8 4.3 90 1003.7 16.8 W 19.0 0.0 14.3
13:56 5.9 4.4 90 1003.8 16.8 N 19.0 0.0 14.3
13:57 5.9 4.4 90 1003.7 16.8 W 18.3 0.0 14.3
13:58 5.8 4.1 89 1003.9 22.1 W 22.1 0.0 14.3
13:59 5.8 4.1 89 1004.0 10.7 NE 22.1 0.0 14.3
14:00 5.8 4.1 89 1003.9 10.7 NE 22.1 0.0 14.3
14:02 5.7 4.0 89 1003.9 11.4 NW 22.1 0.0 14.3
14:03 5.6 3.9 89 1004.0 15.9 WNW 22.1 0.0 14.3
14:05 5.5 3.8 89 1003.8 15.9 N 22.1 0.0 14.3
14:06 5.5 3.8 89 1004.0 9.2 NW 22.1 0.0 14.3
14:07 5.4 3.7 89 1004.0 6.0 NE 22.1 0.0 14.3
14:09 5.2 3.5 89 1004.0 9.2 N 15.9 0.0 14.3
14:11 5.2 3.5 89 1003.9 8.3 N 15.9 0.0 14.3
14:12 5.2 3.5 89 1004.0 9.2 N 15.9 0.0 14.3
14:14 5.2 3.5 89 1003.9 6.0 N 15.9 0.0 14.3
14:15 5.1 3.4 89 1003.9 9.2 NW 12.1 0.0 14.3
14:17 5.1 3.4 89 1003.9 6.9 W 12.1 0.0 14.3
14:18 5.1 3.4 89 1004.0 6.0 N 12.1 0.0 14.3
14:20 5.1 3.4 89 1004.0 6.9 NW 12.1 0.0 14.3
14:21 5.1 3.6 90 1004.1 5.4 NW 12.1 0.0 14.3
14:23 5.2 3.7 90 1003.9 4.5 W 12.1 0.0 14.3
14:25 5.3 3.8 90 1004.1 10.7 NW 10.7 0.0 14.3
14:26 5.4 4.1 91 1004.1 13.6 SW 13.6 0.0 14.3
14:27 5.5 4.1 91 1004.1 8.3 SW 13.6 0.0 14.3
14:28 5.6 4.2 91 1004.0 17.4 NW 17.4 0.0 14.3
14:29 5.8 4.4 91 1004.0 13.6 NW 17.4 0.0 14.3
14:30 6.0 4.5 90 1004.1 11.4 N 17.4 0.0 14.3
14:31 6.0 4.5 90 1004.0 9.8 N 17.4 0.0 14.3
14:32 6.2 4.5 89 1004.1 13.0 W 17.4 0.0 14.3
14:34 6.3 4.6 89 1004.0 15.9 NW 17.4 0.0 14.3
14:35 6.3 4.5 88 1004.4 11.4 W 17.4 0.0 14.3
14:36 6.3 4.5 88 1004.2 14.5 NW 17.4 0.0 14.3
14:37 6.3 4.5 88 1004.3 13.6 NW 17.4 0.0 14.3
14:38 6.3 4.3 87 1004.1 18.3 SW 18.3 0.0 14.3
14:39 6.3 4.3 87 1004.2 15.9 NW 18.3 0.0 14.3
14:40 6.3 4.1 86 1004.2 17.4 NW 18.3 0.0 14.3
14:41 6.2 4.0 86 1004.1 14.5 NW 18.3 0.0 14.3
14:42 6.2 4.0 86 1004.2 15.9 NW 18.3 0.0 14.3
14:43 6.2 4.0 86 1004.2 13.6 WNW 18.3 0.0 14.3
14:44 6.2 4.0 86 1004.3 16.8 NW 18.3 0.0 14.3
14:45 6.1 3.9 86 1004.4 16.8 W 18.3 0.0 14.3
14:46 6.1 3.9 86 1004.3 14.5 W 18.3 0.0 14.3
14:47 6.1 3.8 85 1004.4 13.0 NW 18.3 0.0 14.3
14:48 6.1 3.9 86 1004.4 13.0 NW 17.4 0.0 14.3
14:49 6.0 3.7 85 1004.5 9.2 NW 17.4 0.0 14.3
14:50 6.0 3.7 85 1004.4 8.3 NW 17.4 0.0 14.3
14:51 6.0 3.7 85 1004.5 11.4 NW 17.4 0.0 14.3
14:52 5.9 3.6 85 1004.4 11.4 W 17.4 0.0 14.3
14:53 5.9 3.6 85 1004.5 10.7 SW 16.8 0.0 14.3
14:54 5.9 3.6 85 1004.5 10.7 W 16.8 0.0 14.3
14:55 5.9 3.6 85 1004.6 12.1 W 16.8 0.0 14.3
14:57 5.9 3.6 85 1004.5 13.0 NW 14.5 0.0 14.3
14:58 5.9 3.6 85 1004.5 11.4 NW 14.5 0.0 14.3
14:59 6.0 3.7 85 1004.5 14.5 WNW 14.5 0.0 14.3
15:00 6.0 3.7 85 1004.5 14.5 WNW 14.5 0.0 14.3
15:01 6.0 3.7 85 1004.5 14.5 WNW 14.5 0.0 14.3
15:02 6.1 3.8 85 1004.5 11.4 NW 14.5 0.0 14.3
15:03 6.2 3.9 85 1004.6 13.0 N 14.5 0.0 14.3
15:04 6.3 4.0 85 1004.7 13.6 NW 14.5 0.0 14.3
15:05 6.3 3.8 84 1004.7 12.1 NW 14.5 0.0 14.3
15:06 6.3 3.8 84 1004.6 11.4 W 14.5 0.0 14.3
15:07 6.4 3.9 84 1004.7 10.7 W 14.5 0.0 14.3
15:08 6.4 3.9 84 1004.5 11.4 W 14.5 0.0 14.3
15:09 6.5 4.0 84 1004.6 8.3 W 14.5 0.0 14.3
15:10 6.6 4.1 84 1004.8 11.4 W 14.5 0.0 14.3
15:11 6.6 4.1 84 1004.7 13.6 NW 14.5 0.0 14.3
15:13 6.7 4.2 84 1004.7 15.9 W 15.9 0.0 14.3
15:14 6.7 4.0 83 1004.8 18.3 NE 18.3 0.0 14.3
15:15 6.6 3.9 83 1004.7 13.6 W 18.3 0.0 14.3
15:16 6.6 3.7 82 1004.8 15.9 NW 18.3 0.0 14.3
15:17 6.6 3.7 82 1004.9 9.8 NW 18.3 0.0 14.3
15:18 6.6 3.7 82 1005.1 9.2 W 18.3 0.0 14.3
15:19 6.6 3.6 81 1004.8 11.4 SW 18.3 0.0 14.3
15:20 6.5 3.5 81 1005.0 13.0 W 18.3 0.0 14.3
15:21 6.5 3.5 81 1004.8 10.7 W 18.3 0.0 14.3
15:22 6.5 3.5 81 1004.9 11.4 NW 18.3 0.0 14.3
15:23 6.5 3.5 81 1004.9 13.6 NW 18.3 0.0 14.3
15:24 6.5 3.5 81 1004.9 12.1 NW 15.9 0.0 14.3
15:25 6.5 3.5 81 1005.0 13.0 NW 15.9 0.0 14.3
15:27 6.5 3.5 81 1005.1 10.7 W 15.2 0.0 14.3
15:28 6.5 3.5 81 1004.9 12.1 NW 15.2 0.0 14.3
15:29 6.5 3.5 81 1005.0 12.1 NW 13.6 0.0 14.3
15:30 6.5 3.5 81 1005.0 9.8 NW 13.6 0.0 14.3
15:31 6.5 3.5 81 1005.2 13.0 NW 13.6 0.0 14.3
15:32 6.5 3.5 81 1005.0 11.4 W 13.6 0.0 14.3
15:33 6.5 3.5 81 1005.1 9.2 NW 13.6 0.0 14.3
15:34 6.5 3.5 81 1005.2 9.2 SW 13.6 0.0 14.3
15:35 6.5 3.5 81 1005.2 13.6 NW 13.6 0.0 14.3
15:36 6.5 3.5 81 1005.0 9.8 NW 13.6 0.0 14.3
15:37 6.5 3.3 80 1005.2 12.1 NW 14.5 0.0 14.3
15:38 6.5 3.3 80 1005.2 9.8 NW 14.5 0.0 14.3
15:39 6.5 3.3 80 1005.3 10.7 NW 14.5 0.0 14.3
15:40 6.5 3.3 80 1005.1 8.3 NW 14.5 0.0 14.3
15:41 6.5 3.3 80 1005.2 12.1 NW 14.5 0.0 14.3
15:42 6.5 3.3 80 1005.1 13.0 SW 14.5 0.0 14.3
15:43 6.5 3.3 80 1005.2 14.5 NW 14.5 0.0 14.3
15:44 6.4 3.2 80 1005.2 13.6 NW 14.5 0.0 14.3
15:45 6.4 3.2 80 1005.2 7.6 W 14.5 0.0 14.3
15:46 6.4 3.2 80 1005.3 8.3 W 14.5 0.0 14.3
15:47 6.5 3.3 80 1005.2 9.8 W 14.5 0.0 14.3
15:49 6.5 3.3 80 1005.4 9.8 NW 14.5 0.0 14.3
15:50 6.5 3.3 80 1005.4 8.3 NW 14.5 0.0 14.3
15:51 6.6 3.4 80 1005.4 12.1 N 14.5 0.0 14.3
15:52 6.7 3.3 79 1005.5 14.5 NW 14.5 0.0 14.3
15:53 6.7 3.3 79 1005.5 12.1 W 14.5 0.0 14.3
15:54 6.7 3.3 79 1005.5 13.0 NW 14.5 0.0 14.3
15:55 6.7 3.3 79 1005.5 13.6 NW 14.5 0.0 14.3
15:56 6.7 3.3 79 1005.4 8.3 NW 14.5 0.0 14.3
15:58 6.7 3.3 79 1005.6 9.8 SW 14.5 0.0 14.3
15:59 6.8 3.4 79 1005.5 12.1 NW 14.5 0.0 14.3
16:00 6.8 3.4 79 1005.6 12.1 NW 14.5 0.0 14.3
16:01 6.8 3.4 79 1005.5 9.8 W 14.5 0.0 14.3
16:02 6.8 3.4 79 1005.4 9.2 NW 14.5 0.0 14.3
16:03 6.8 3.4 79 1005.6 12.1 NW 13.6 0.0 14.3
16:04 6.8 3.4 79 1005.5 7.6 W 13.6 0.0 14.3
16:05 6.8 3.4 79 1005.7 9.8 W 12.1 0.0 14.3
16:06 6.7 3.3 79 1005.7 13.0 N 13.0 0.0 14.3
16:08 6.7 3.1 78 1005.6 10.7 NW 13.0 0.0 14.3
16:09 6.6 3.0 78 1005.6 9.2 W 13.0 0.0 14.3
16:10 6.6 3.2 79 1005.6 14.5 NW 14.5 0.0 14.3
16:12 6.5 2.9 78 1005.6 6.9 NW 14.5 0.0 14.3
16:13 6.4 2.8 78 1005.6 11.4 NW 14.5 0.0 14.3
16:15 6.3 2.7 78 1005.7 9.8 W 14.5 0.0 14.3
16:16 6.3 2.7 78 1005.7 13.0 NW 14.5 0.0 14.3
16:18 6.2 2.7 78 1005.7 9.8 W 14.5 0.0 14.3
16:19 6.1 2.7 79 1005.7 9.2 W 14.5 0.0 14.3
16:21 6.1 2.7 79 1005.7 8.3 NW 13.0 0.0 14.3
16:22 6.0 2.6 79 1005.8 7.6 NW 13.0 0.0 14.3
16:24 6.0 2.6 79 1005.8 7.6 W 13.0 0.0 14.3
16:25 6.0 2.6 79 1005.8 9.2 W 13.0 0.0 14.3
16:27 6.1 2.7 79 1005.8 9.8 NNW 10.7 0.0 14.3
16:29 6.1 2.7 79 1005.8 9.2 NW 10.7 0.0 14.3
16:30 6.1 2.7 79 1005.7 11.4 W 11.4 0.0 14.3
16:31 6.2 3.0 80 1005.7 9.8 W 11.4 0.0 14.3
16:32 6.2 2.8 79 1005.8 4.5 NW 13.6 0.0 14.3
16:33 6.2 2.8 79 1005.8 5.4 NW 13.6 0.0 14.3
16:34 6.2 2.8 79 1005.7 6.9 NW 13.6 0.0 14.3
16:35 6.2 3.0 80 1005.8 4.5 SW 13.6 0.0 14.3
16:36 6.2 2.8 79 1006.0 6.0 W 13.6 0.0 14.3
16:37 6.2 3.0 80 1005.9 9.8 SW 13.6 0.0 14.3
16:38 6.2 2.8 79 1005.9 8.3 W 13.6 0.0 14.3
16:39 6.2 3.0 80 1005.8 6.0 NW 13.6 0.0 14.3
16:40 6.2 2.8 79 1005.8 9.8 W 13.6 0.0 14.3
16:41 6.2 2.8 79 1005.8 9.8 W 13.6 0.0 14.3
16:42 6.1 2.7 79 1005.9 6.9 W 11.4 0.0 14.3
16:43 6.2 2.8 79 1006.1 6.0 W 11.4 0.0 14.3
16:45 6.2 2.8 79 1006.1 7.6 SW 11.4 0.0 14.3
16:46 6.2 2.8 79 1006.0 6.9 W 11.4 0.0 14.3
16:47 6.1 2.7 79 1006.0 5.4 W 11.4 0.0 14.3
16:48 6.1 2.7 79 1006.2 7.6 W 11.4 0.0 14.3
16:49 6.1 2.7 79 1006.1 4.5 W 11.4 0.0 14.3
16:50 6.1 2.7 79 1006.1 6.0 NW 11.4 0.0 14.3
16:51 6.1 2.7 79 1006.2 8.3 W 8.3 0.0 14.3
16:52 6.1 2.7 79 1006.1 5.4 W 8.3 0.0 14.3
16:53 6.1 2.7 79 1006.2 5.4 W 8.3 0.0 14.3
16:54 6.0 2.6 79 1006.2 6.0 SW 8.3 0.0 14.3
16:55 6.0 2.6 79 1006.1 6.0 SW 8.3 0.0 14.3
16:56 5.9 2.5 79 1006.1 6.9 W 8.3 0.0 14.3
16:57 5.9 2.5 79 1006.2 5.4 W 8.3 0.0 14.3
16:58 5.9 2.5 79 1006.3 3.1 SW 8.3 0.0 14.3
16:59 5.9 2.5 79 1006.2 3.8 SW 8.3 0.0 14.3
17:00 5.9 2.5 79 1006.5 3.8 SW 8.3 0.0 14.3
17:01 5.9 2.5 79 1006.5 3.8 SW 8.3 0.0 14.3
17:02 5.9 2.5 79 1006.2 3.8 SW 6.9 0.0 14.3
17:03 5.9 2.5 79 1006.2 3.8 SW 6.9 0.0 14.3
17:04 5.9 2.5 79 1006.4 3.8 SW 6.9 0.0 14.3
17:05 5.7 2.3 79 1006.3 6.0 SW 6.9 0.0 14.3
17:07 5.6 2.2 79 1006.3 6.0 SW 6.9 0.0 14.3
17:08 5.6 2.2 79 1006.4 3.8 SW 6.0 0.0 14.3
17:09 5.6 2.2 79 1006.3 4.5 SW 6.0 0.0 14.3
17:10 5.5 2.2 79 1006.4 7.6 W 7.6 0.0 14.3
17:11 5.5 2.2 79 1006.4 5.4 NW 7.6 0.0 14.3
17:12 5.4 2.1 79 1006.4 6.9 W 7.6 0.0 14.3
17:13 5.4 2.1 79 1006.4 6.9 W 7.6 0.0 14.3
17:14 5.3 2.0 79 1006.4 6.0 W 7.6 0.0 14.3
17:15 5.3 2.0 79 1006.4 3.8 W 7.6 0.0 14.3
17:16 5.3 2.0 79 1006.5 3.8 N 7.6 0.0 14.3
17:17 5.2 2.0 80 1006.5 4.5 SW 7.6 0.0 14.3
17:19 5.1 1.8 79 1006.5 3.8 W 7.6 0.0 14.3
17:21 5.1 1.9 80 1006.6 4.5 SW 6.9 0.0 14.3
17:23 4.9 1.7 80 1006.5 8.3 W 8.3 0.0 14.3
17:24 4.8 1.6 80 1006.5 5.4 W 8.3 0.0 14.3
17:25 4.8 1.6 80 1006.6 5.4 SW 8.3 0.0 14.3
17:26 4.8 1.6 80 1006.5 4.5 SW 8.3 0.0 14.3
17:27 4.7 1.5 80 1006.6 5.4 SW 8.3 0.0 14.3
17:28 4.6 1.5 80 1006.7 4.5 SW 8.3 0.0 14.3
17:29 4.6 1.5 80 1006.6 7.6 SW 8.3 0.0 14.3
17:30 4.5 1.4 80 1006.7 5.4 SW 8.3 0.0 14.3
17:31 4.6 1.5 80 1006.8 4.5 SW 8.3 0.0 14.3
17:32 4.5 1.4 80 1006.8 5.4 W 8.3 0.0 14.3
17:33 4.4 1.3 80 1006.9 4.5 SW 7.6 0.0 14.3
17:35 4.4 1.3 80 1006.9 4.5 SW 7.6 0.0 14.3
17:36 4.3 1.2 80 1006.9 5.4 W 7.6 0.0 14.3
17:37 4.3 1.2 80 1006.9 5.4 W 7.6 0.0 14.3
17:38 4.2 1.2 81 1006.9 3.8 W 7.6 0.0 14.3
17:39 4.1 1.1 81 1006.9 4.5 SW 7.6 0.0 14.3
17:40 4.2 1.2 81 1006.9 3.8 SW 6.9 0.0 14.3
17:41 4.1 1.1 81 1007.0 3.8 W 6.9 0.0 14.3
17:42 4.1 1.1 81 1007.0 4.5 W 6.9 0.0 14.3
17:43 4.0 1.0 81 1007.0 3.8 W 6.9 0.0 14.3
17:44 4.0 1.0 81 1007.0 5.4 W 6.9 0.0 14.3
17:45 4.0 1.0 81 1007.1 4.5 W 6.9 0.0 14.3
17:46 3.9 0.9 81 1007.0 2.2 W 6.9 0.0 14.3
17:47 3.9 0.9 81 1007.0 4.5 W 6.9 0.0 14.3
17:48 3.8 0.8 81 1007.0 3.1 W 5.4 0.0 14.3
17:49 3.8 0.8 81 1007.0 3.8 W 5.4 0.0 14.3
17:50 3.8 0.8 81 1007.0 3.8 W 5.4 0.0 14.3
17:51 3.8 1.0 82 1007.0 3.8 W 5.4 0.0 14.3
17:52 3.7 0.9 82 1006.9 3.8 W 5.4 0.0 14.3
17:53 3.7 0.9 82 1006.9 3.8 W 5.4 0.0 14.3
17:54 3.7 0.9 82 1006.9 3.1 W 5.4 0.0 14.3
17:55 3.7 0.9 82 1007.0 3.1 W 5.4 0.0 14.3
17:56 3.7 0.9 82 1006.9 3.1 W 5.4 0.0 14.3
17:58 3.6 0.8 82 1006.8 1.6 W 5.4 0.0 14.3
17:59 3.6 0.8 82 1007.1 3.1 W 3.8 0.0 14.3
18:00 3.6 0.8 82 1007.1 3.1 W 3.8 0.0 14.3
18:01 3.6 0.8 82 1007.0 3.1 W 3.8 0.0 14.3
18:02 3.6 0.8 82 1007.1 3.1 W 3.8 0.0 14.3
18:03 3.6 0.8 82 1007.0 3.1 W 3.8 0.0 14.3
18:04 3.5 0.7 82 1007.1 3.8 W 3.8 0.0 14.3
18:05 3.5 0.7 82 1007.1 2.2 W 3.8 0.0 14.3
18:06 3.5 0.9 83 1007.0 2.2 W 3.8 0.0 14.3
18:07 3.4 0.8 83 1007.1 2.2 W 3.8 0.0 14.3
18:08 3.4 0.8 83 1007.0 3.1 W 3.8 0.0 14.3
18:10 3.4 0.8 83 1007.0 3.8 W 3.8 0.0 14.3
18:11 3.3 0.7 83 1007.0 3.1 W 3.8 0.0 14.3
18:13 3.3 0.7 83 1007.0 3.1 W 3.8 0.0 14.3
18:14 3.3 0.7 83 1007.1 3.8 W 3.8 0.0 14.3
18:16 3.2 0.6 83 1007.0 2.2 W 3.8 0.0 14.3
18:17 3.2 0.6 83 1007.1 2.2 W 3.8 0.0 14.3
18:19 3.2 0.6 83 1007.0 3.1 W 3.8 0.0 14.3
18:21 3.1 0.5 83 1007.1 2.2 W 3.8 0.0 14.3
18:22 3.1 0.5 83 1007.1 2.2 W 3.8 0.0 14.3
18:23 3.0 0.4 83 1007.1 3.1 W 3.8 0.0 14.3
18:25 3.0 0.4 83 1007.2 3.8 W 3.8 0.0 14.3
18:27 2.9 0.5 84 1007.2 3.1 W 3.8 0.0 14.3
18:29 2.9 0.5 84 1007.2 2.2 W 3.8 0.0 14.3
18:30 2.9 0.5 84 1007.2 1.6 W 3.8 0.0 14.3
18:32 2.8 0.4 84 1007.2 1.6 W 3.8 0.0 14.3
18:33 2.8 0.4 84 1007.4 2.2 W 3.8 0.0 14.3
18:34 2.8 0.4 84 1007.4 1.6 W 3.8 0.0 14.3
18:35 2.8 0.4 84 1007.4 2.2 W 3.8 0.0 14.3
18:36 2.8 0.4 84 1007.3 1.6 W 3.1 0.0 14.3
18:37 2.8 0.4 84 1007.3 1.6 W 2.2 0.0 14.3
18:38 2.8 0.4 84 1007.4 1.6 W 2.2 0.0 14.3
18:39 2.8 0.4 84 1007.4 2.2 W 2.2 0.0 14.3
18:40 2.8 0.4 84 1007.5 1.6 W 2.2 0.0 14.3
18:41 2.8 0.4 84 1007.6 2.2 W 2.2 0.0 14.3
18:43 2.8 0.4 84 1007.3 1.6 W 2.2 0.0 14.3
18:44 2.7 0.3 84 1007.4 2.2 W 2.2 0.0 14.3
18:45 2.7 0.3 84 1007.4 2.2 W 2.2 0.0 14.3
18:46 2.7 0.3 84 1007.4 3.1 W 3.1 0.0 14.3
18:47 2.7 0.3 84 1007.5 3.1 W 3.1 0.0 14.3
18:48 2.6 0.2 84 1007.5 2.2 W 3.1 0.0 14.3
18:49 2.6 0.2 84 1007.6 0.7 W 3.1 0.0 14.3
18:50 2.6 0.2 84 1007.5 0.7 W 3.1 0.0 14.3
18:51 2.6 0.2 84 1007.6 0.0 W 3.1 0.0 14.3
18:53 2.5 0.1 84 1007.3 1.6 W 3.1 0.0 14.3
18:54 2.5 0.1 84 1007.4 0.7 W 3.1 0.0 14.3
18:55 2.5 0.1 84 1007.5 0.0 W 3.1 0.0 14.3
18:56 2.4 0.0 84 1007.5 0.7 W 3.1 0.0 14.3
18:57 2.4 0.0 84 1007.5 0.0 W 2.2 0.0 14.3
18:58 2.4 0.0 84 1007.6 0.0 W 2.2 0.0 14.3
18:59 2.4 0.0 84 1007.4 0.0 W 1.6 0.0 14.3
19:00 2.4 0.0 84 1007.4 0.0 W 1.6 0.0 14.3
19:01 2.4 0.0 84 1007.6 0.0 W 1.6 0.0 14.3
19:03 2.4 0.0 84 1007.5 0.0 W 0.7 0.0 14.3
19:04 2.4 0.0 84 1007.5 0.0 W 0.7 0.0 14.3
19:05 2.4 0.0 84 1007.3 0.0 W 0.7 0.0 14.3
19:06 2.4 0.0 84 1007.6 0.0 W 0.7 0.0 14.3
19:07 2.2 -0.1 85 1007.4 0.7 W 0.7 0.0 14.3
19:08 2.1 -0.2 85 1007.6 1.6 W 1.6 0.0 14.3
19:10 2.1 -0.2 85 1007.7 1.6 W 1.6 0.0 14.3
19:11 2.1 -0.2 85 1007.6 1.6 W 1.6 0.0 14.3
19:12 2.1 -0.2 85 1007.6 1.6 W 1.6 0.0 14.3
19:13 2.1 0.0 86 1007.6 1.6 W 1.6 0.0 14.3
19:14 2.1 0.0 86 1007.5 1.6 W 1.6 0.0 14.3
19:15 2.0 -0.1 86 1007.6 0.7 W 1.6 0.0 14.3
19:16 2.0 -0.1 86 1007.7 1.6 W 1.6 0.0 14.3
19:17 2.0 -0.1 86 1007.5 1.6 W 1.6 0.0 14.3
19:19 2.0 -0.1 86 1007.5 1.6 W 1.6 0.0 14.3
19:20 2.0 -0.1 86 1007.5 1.6 W 1.6 0.0 14.3
19:21 2.0 -0.1 86 1007.6 0.7 W 1.6 0.0 14.3
19:22 2.0 -0.1 86 1007.7 1.6 W 1.6 0.0 14.3
19:23 1.9 -0.2 86 1007.5 0.7 W 1.6 0.0 14.3
19:24 1.9 -0.2 86 1007.7 0.0 W 1.6 0.0 14.3
19:25 1.9 -0.2 86 1007.7 1.6 W 1.6 0.0 14.3
19:26 1.9 -0.2 86 1007.7 2.2 W 2.2 0.0 14.3
19:27 1.9 -0.2 86 1007.7 1.6 W 2.2 0.0 14.3
19:29 1.8 -0.3 86 1007.5 1.6 W 2.2 0.0 14.3
19:30 1.7 -0.4 86 1007.7 1.6 W 2.2 0.0 14.3
19:31 1.7 -0.4 86 1007.5 0.7 W 2.2 0.0 14.3
19:32 1.7 -0.4 86 1007.7 0.7 W 2.2 0.0 14.3
19:33 1.7 -0.4 86 1007.7 0.7 W 2.2 0.0 14.3
19:34 1.6 -0.3 87 1007.5 0.7 W 2.2 0.0 14.3
19:35 1.6 -0.3 87 1007.6 0.7 W 2.2 0.0 14.3
19:36 1.6 -0.3 87 1007.7 0.7 W 2.2 0.0 14.3
19:37 1.6 -0.3 87 1007.6 1.6 W 1.6 0.0 14.3
19:39 1.6 -0.3 87 1007.7 0.7 W 2.2 0.0 14.3
19:40 1.6 -0.3 87 1007.6 1.6 W 2.2 0.0 14.3
19:41 1.6 -0.3 87 1007.7 1.6 W 2.2 0.0 14.3
19:42 1.6 -0.3 87 1007.7 0.7 W 2.2 0.0 14.3
19:43 1.5 -0.4 87 1007.7 1.6 W 2.2 0.0 14.3
19:44 1.5 -0.4 87 1007.7 0.7 W 2.2 0.0 14.3
19:45 1.5 -0.4 87 1007.7 0.7 W 2.2 0.0 14.3
19:46 1.5 -0.4 87 1007.7 1.6 W 2.2 0.0 14.3
19:47 1.5 -0.4 87 1007.7 2.2 W 2.2 0.0 14.3
19:49 1.5 -0.4 87 1007.7 0.7 W 2.2 0.0 14.3
19:50 1.4 -0.5 87 1007.7 0.7 W 2.2 0.0 14.3
19:51 1.4 -0.5 87 1007.7 0.0 W 2.2 0.0 14.3
19:52 1.4 -0.5 87 1007.7 0.0 W 2.2 0.0 14.3
19:53 1.3 -0.6 87 1007.7 0.7 W 2.2 0.0 14.3
19:54 1.3 -0.6 87 1007.7 0.7 W 2.2 0.0 14.3
19:55 1.3 -0.6 87 1007.6 0.7 W 2.2 0.0 14.3
19:56 1.3 -0.6 87 1007.7 0.0 W 2.2 0.0 14.3
19:57 1.2 -0.7 87 1007.7 0.0 W 1.6 0.0 14.3
19:59 1.2 -0.7 87 1007.6 1.6 W 1.6 0.0 14.3
20:00 1.2 -0.7 87 1007.6 1.6 W 1.6 0.0 14.3
20:01 1.2 -0.7 87 1007.7 1.6 W 1.6 0.0 14.3
20:02 1.2 -0.7 87 1007.7 1.6 W 1.6 0.0 14.3
20:03 1.2 -0.7 87 1007.7 1.6 W 1.6 0.0 14.3
20:04 1.0 -0.8 88 1007.7 1.6 NW 1.6 0.0 14.3
20:05 1.1 -0.7 88 1007.7 1.6 NW 1.6 0.0 14.3
20:06 1.1 -0.7 88 1007.7 1.6 NW 1.6 0.0 14.3
20:08 1.1 -0.7 88 1007.7 0.7 NW 1.6 0.0 14.3
20:09 1.1 -0.7 88 1007.7 0.0 NW 1.6 0.0 14.3
20:11 1.0 -0.8 88 1007.7 1.6 NW 1.6 0.0 14.3
20:12 1.0 -0.8 88 1007.8 0.0 NW 1.6 0.0 14.3
20:14 1.0 -0.8 88 1007.8 0.7 NW 1.6 0.0 14.3
20:15 1.0 -0.8 88 1007.7 0.0 NW 1.6 0.0 14.3
20:17 0.9 -0.9 88 1007.7 0.7 NW 1.6 0.0 14.3
20:19 0.9 -0.9 88 1007.7 0.0 NW 1.6 0.0 14.3
20:20 0.9 -0.9 88 1007.9 1.6 NW 1.6 0.0 14.3
20:22 0.8 -1.0 88 1007.9 0.7 NW 1.6 0.0 14.3
20:23 0.8 -1.0 88 1007.9 0.7 NW 1.6 0.0 14.3
20:25 0.8 -1.0 88 1007.8 0.7 NW 1.6 0.0 14.3
20:26 0.8 -1.0 88 1007.8 0.7 NW 1.6 0.0 14.3
20:28 0.8 -0.8 89 1007.8 0.7 NW 1.6 0.0 14.3
20:29 0.8 -0.8 89 1007.9 0.0 NW 1.6 0.0 14.3
20:30 0.8 -0.8 89 1007.9 0.7 NW 1.6 0.0 14.3
20:31 0.8 -0.8 89 1007.9 0.0 NW 1.6 0.0 14.3
20:32 0.8 -0.8 89 1007.9 0.7 NW 1.6 0.0 14.3
20:34 0.8 -0.8 89 1007.7 0.7 NW 0.7 0.0 14.3
20:35 0.8 -0.8 89 1007.8 1.6 NW 1.6 0.0 14.3
20:36 0.8 -0.8 89 1007.7 1.6 NW 1.6 0.0 14.3
20:37 0.8 -0.8 89 1007.6 0.7 NW 1.6 0.0 14.3
20:38 0.8 -0.8 89 1007.7 0.7 NW 1.6 0.0 14.3
20:39 0.8 -0.8 89 1007.7 2.2 NW 2.2 0.0 14.3
20:41 0.8 -0.6 90 1007.6 1.6 NW 2.2 0.0 14.3
20:42 0.9 -0.5 90 1007.7 0.7 NW 2.2 0.0 14.3
20:43 0.8 -0.6 90 1007.7 0.7 NW 2.2 0.0 14.3
20:44 0.9 -0.5 90 1007.7 0.7 NW 2.2 0.0 14.3
20:45 0.9 -0.5 90 1007.7 1.6 NW 2.2 0.0 14.3
20:46 0.9 -0.5 90 1007.7 1.6 NW 2.2 0.0 14.3
20:47 0.9 -0.5 90 1007.7 1.6 NW 2.2 0.0 14.3
20:48 1.0 -0.5 90 1007.8 1.6 NW 2.2 0.0 14.3
20:50 1.0 -0.5 90 1007.7 0.7 NW 1.6 0.0 14.3
20:51 1.0 -0.5 90 1007.7 0.7 NW 1.6 0.0 14.3
20:52 1.0 -0.5 90 1007.7 0.0 NW 1.6 0.0 14.3
20:53 1.0 -0.5 90 1007.7 0.7 NW 1.6 0.0 14.3
20:54 0.9 -0.5 90 1007.5 0.0 NW 1.6 0.0 14.3
20:55 1.0 -0.5 90 1007.5 0.0 NW 1.6 0.0 14.3
20:56 0.9 -0.5 90 1007.8 0.0 NW 1.6 0.0 14.3
20:57 0.9 -0.5 90 1007.7 0.0 NW 1.6 0.0 14.3
20:58 0.9 -0.5 90 1007.8 0.0 NW 1.6 0.0 14.3
21:00 0.8 -0.6 90 1007.8 0.0 NW 0.7 0.0 14.3
21:01 0.8 -0.6 90 1007.7 0.0 NW 0.7 0.0 14.3
21:02 0.8 -0.6 90 1007.7 0.0 NW 0.7 0.0 14.3
21:03 0.8 -0.6 90 1007.7 0.0 NW 0.0 0.0 14.3
21:04 0.7 -0.7 90 1007.7 1.6 NW 1.6 0.0 14.3
21:05 0.7 -0.7 90 1007.7 1.6 NW 1.6 0.0 14.3
21:06 0.7 -0.7 90 1007.7 1.6 NW 1.6 0.0 14.3
21:08 0.8 -0.6 90 1007.7 0.7 NW 1.6 0.0 14.3
21:09 0.8 -0.6 90 1007.7 0.7 NW 1.6 0.0 14.3
21:10 0.8 -0.6 90 1007.7 0.7 NW 1.6 0.0 14.3
21:11 0.8 -0.6 90 1007.8 0.7 NW 1.6 0.0 14.3
21:12 0.8 -0.6 90 1007.7 0.7 NW 1.6 0.0 14.3
21:13 0.8 -0.6 90 1007.7 0.7 NW 1.6 0.0 14.3
21:14 0.8 -0.6 90 1007.7 0.7 NW 1.6 0.0 14.3
21:15 0.8 -0.6 90 1007.7 0.7 NW 1.6 0.0 14.3
21:16 0.8 -0.6 90 1007.5 1.6 NW 1.6 0.0 14.3
21:17 0.7 -0.7 90 1007.4 0.7 NW 1.6 0.0 14.3
21:19 0.7 -0.7 90 1007.6 0.7 NW 1.6 0.0 14.3
21:20 0.7 -0.7 90 1007.5 0.7 NW 1.6 0.0 14.3
21:21 0.7 -0.7 90 1007.4 0.7 NW 1.6 0.0 14.3
21:22 0.7 -0.7 90 1007.7 0.0 NW 1.6 0.0 14.3
21:23 0.7 -0.7 90 1007.5 0.7 NW 1.6 0.0 14.3
21:24 0.7 -0.7 90 1007.6 1.6 NW 1.6 0.0 14.3
21:25 0.7 -0.7 90 1007.6 1.6 NW 1.6 0.0 14.3
21:26 0.7 -0.7 90 1007.5 1.6 NW 1.6 0.0 14.3
21:27 0.7 -0.7 90 1007.6 0.7 NW 1.6 0.0 14.3
21:28 0.7 -0.7 90 1007.6 1.6 NW 1.6 0.0 14.3
21:30 0.7 -0.7 90 1007.8 0.7 NW 1.6 0.0 14.3
21:31 0.7 -0.7 90 1007.7 1.6 NW 1.6 0.0 14.3
21:32 0.8 -0.5 91 1007.7 0.7 NW 1.6 0.0 14.3
21:33 0.7 -0.6 91 1007.6 0.7 NW 1.6 0.0 14.3
21:34 0.8 -0.5 91 1007.6 0.7 NW 1.6 0.0 14.3
21:35 0.8 -0.6 90 1007.6 0.7 NW 1.6 0.0 14.3
21:36 0.8 -0.6 90 1007.5 0.7 NW 1.6 0.0 14.3
21:38 0.8 -0.6 90 1007.6 0.7 NW 1.6 0.0 14.3
21:39 0.8 -0.6 90 1007.5 1.6 NW 1.6 0.0 14.3
21:40 0.8 -0.6 90 1007.6 0.7 NW 1.6 0.0 14.3
21:41 0.8 -0.6 90 1007.4 0.7 NW 1.6 0.0 14.3
21:42 0.8 -0.5 91 1007.5 0.7 NW 1.6 0.0 14.3
21:43 0.8 -0.5 91 1007.4 0.7 NW 1.6 0.0 14.3
21:44 0.8 -0.5 91 1007.6 0.7 NW 1.6 0.0 14.3
21:45 0.8 -0.5 91 1007.5 1.6 NW 1.6 0.0 14.3
21:47 0.8 -0.5 91 1007.4 0.7 NW 1.6 0.0 14.3
21:48 0.8 -0.5 91 1007.4 0.7 NW 1.6 0.0 14.3
21:49 0.8 -0.5 91 1007.4 0.7 NW 1.6 0.0 14.3
21:50 0.8 -0.5 91 1007.3 0.7 NW 1.6 0.0 14.3
21:51 0.8 -0.5 91 1007.4 0.7 NW 1.6 0.0 14.3
21:53 0.9 -0.4 91 1007.4 0.7 NW 1.6 0.0 14.3
21:54 0.8 -0.5 91 1007.3 0.7 NW 1.6 0.0 14.3
21:55 0.9 -0.4 91 1007.4 1.6 NW 1.6 0.0 14.3
21:56 0.9 -0.4 91 1007.2 1.6 NW 1.6 0.0 14.3
21:58 0.9 -0.4 91 1007.2 1.6 NW 1.6 0.0 14.3
21:59 0.9 -0.4 91 1007.3 0.7 NW 1.6 0.0 14.3
22:01 0.9 -0.4 91 1007.1 0.7 NW 1.6 0.0 14.3
22:03 0.9 -0.4 91 1007.2 0.7 NW 1.6 0.0 14.3
22:04 1.0 -0.3 91 1007.2 1.6 NW 1.6 0.0 14.3
22:07 1.0 -0.3 91 1007.2 1.6 NW 1.6 0.0 14.3
22:09 1.0 -0.3 91 1007.1 0.7 NW 1.6 0.0 14.3
22:12 1.0 -0.3 91 1006.9 0.7 NW 1.6 0.0 14.3
22:15 1.0 -0.3 91 1006.8 0.7 NW 1.6 0.0 14.3
22:18 1.1 -0.2 91 1006.7 1.6 NW 1.6 0.0 14.3
22:20 1.1 -0.2 91 1006.9 1.6 NW 1.6 0.0 14.3
22:22 1.1 -0.2 91 1006.8 1.6 NW 1.6 0.0 14.3
22:24 1.2 -0.1 91 1006.7 0.7 NW 1.6 0.0 14.3
22:25 1.2 -0.1 91 1006.6 1.6 NW 1.6 0.0 14.3
22:27 1.2 -0.1 91 1006.6 1.6 NW 1.6 0.0 14.3
22:29 1.3 0.0 91 1006.6 1.6 NW 2.2 0.0 14.3
22:31 1.3 0.0 91 1006.6 2.2 NW 2.2 0.0 14.3
22:33 1.3 0.1 92 1006.7 3.1 E 3.1 0.0 14.3
22:35 1.3 0.0 91 1006.6 2.2 SE 4.5 0.0 14.3
22:37 1.4 0.1 91 1006.6 2.2 E 4.5 0.0 14.3
22:39 1.4 0.2 92 1006.5 2.2 E 4.5 0.0 14.3
22:41 1.4 0.1 91 1006.8 1.6 E 4.5 0.0 14.3
22:43 1.4 0.1 91 1006.7 3.1 E 4.5 0.0 14.3
22:45 1.4 0.1 91 1006.7 2.2 E 3.1 0.0 14.3
22:46 1.4 0.1 91 1006.7 2.2 E 3.1 0.0 14.3
22:48 1.4 0.1 91 1006.6 3.1 E 3.1 0.0 14.3
22:49 1.4 0.1 91 1006.7 3.1 E 3.1 0.0 14.3
22:50 1.4 0.1 91 1006.6 3.1 E 3.1 0.0 14.3
22:52 1.4 0.1 91 1006.7 3.8 E 3.8 0.0 14.3
22:53 1.4 0.2 92 1006.7 3.1 E 3.8 0.0 14.3
22:54 1.4 0.1 91 1006.7 3.1 SE 4.5 0.0 14.3
22:55 1.4 0.2 92 1006.6 5.4 SE 5.4 0.0 14.3
22:56 1.4 0.2 92 1006.8 3.8 SE 5.4 0.0 14.3
22:57 1.4 0.2 92 1006.8 3.1 SE 5.4 0.0 14.3
22:58 1.4 0.2 92 1006.7 3.1 SE 5.4 0.0 14.3
22:59 1.4 0.2 92 1006.5 3.1 SE 5.4 0.0 14.3
23:00 1.5 0.3 92 1006.5 3.1 SE 5.4 0.0 14.3
23:02 1.5 0.3 92 1006.6 3.1 SE 5.4 0.0 14.3
23:03 1.5 0.3 92 1006.6 2.2 SE 5.4 0.0 14.3
23:04 1.5 0.3 92 1006.6 3.1 SE 5.4 0.0 14.3
23:05 1.5 0.3 92 1006.5 3.8 SE 5.4 0.0 14.3
23:06 1.5 0.3 92 1006.7 3.8 SE 3.8 0.0 14.3
23:07 1.5 0.3 92 1006.7 4.5 SE 4.5 0.0 14.3
23:08 1.5 0.3 92 1006.6 4.5 SE 4.5 0.0 14.3
23:09 1.6 0.4 92 1006.6 5.4 E 5.4 0.0 14.3
23:11 1.6 0.4 92 1006.7 4.5 SE 5.4 0.0 14.3
23:12 1.6 0.4 92 1006.6 5.4 SE 5.4 0.0 14.3
23:13 1.6 0.4 92 1006.6 4.5 SE 5.4 0.0 14.3
23:14 1.6 0.4 92 1006.7 5.4 SE 5.4 0.0 14.3
23:15 1.7 0.5 92 1006.7 5.4 SE 5.4 0.0 14.3
23:16 1.7 0.5 92 1006.6 5.4 SE 5.4 0.0 14.3
23:17 1.7 0.5 92 1006.5 5.4 SE 5.4 0.0 14.3
23:18 1.7 0.5 92 1006.6 4.5 SE 5.4 0.0 14.3
23:20 1.7 0.5 92 1006.4 5.4 SE 5.4 0.0 14.3
23:21 1.7 0.5 92 1006.5 6.0 SE 6.0 0.0 14.3
23:22 1.8 0.6 92 1006.5 4.5 SE 6.0 0.0 14.3
23:23 1.8 0.6 92 1006.5 3.8 SE 6.0 0.0 14.3
23:24 1.8 0.6 92 1006.5 3.8 SE 6.0 0.0 14.3
23:25 1.8 0.6 92 1006.5 3.8 SE 6.0 0.0 14.3
23:26 1.8 0.6 92 1006.5 4.5 SE 6.0 0.0 14.3
23:28 1.8 0.6 92 1006.5 5.4 SE 6.0 0.0 14.3
23:29 1.9 0.7 92 1006.5 5.4 SE 6.0 0.0 14.3
23:30 1.9 0.7 92 1006.4 5.4 SE 6.0 0.0 14.3
23:31 1.9 0.7 92 1006.5 6.0 SE 6.0 0.0 14.3
23:32 2.0 0.8 92 1006.5 5.4 SE 6.9 0.0 14.3
23:33 2.0 0.8 92 1006.6 6.9 SE 6.9 0.0 14.3
23:34 2.0 0.8 92 1006.4 6.9 SE 6.9 0.0 14.3
23:36 2.1 0.9 92 1006.4 9.8 SE 9.8 0.0 14.3
23:37 2.1 0.8 91 1006.3 6.9 SE 9.8 0.0 14.3
23:38 2.1 0.8 91 1006.4 6.0 SE 9.8 0.0 14.3
23:39 2.1 0.8 91 1006.3 6.0 SE 9.8 0.0 14.3
23:40 2.2 1.0 92 1006.2 7.6 S 9.8 0.0 14.3
23:41 2.3 1.0 91 1006.4 7.6 SE 9.8 0.0 14.3
23:42 2.3 1.0 91 1006.3 5.4 S 9.8 0.0 14.3
23:43 2.3 1.0 91 1006.3 6.0 SE 9.8 0.0 14.3
23:45 2.4 1.1 91 1006.3 6.0 SE 9.8 0.0 14.3
23:46 2.5 1.2 91 1006.2 8.3 SE 8.3 0.0 14.3
23:48 2.5 1.2 91 1006.1 6.9 SE 8.3 0.0 14.3
23:49 2.5 1.2 91 1006.1 6.0 SE 8.3 0.0 14.3
23:50 2.6 1.3 91 1006.2 6.0 SE 8.3 0.0 14.3
23:51 2.6 1.3 91 1006.1 6.9 SE 8.3 0.0 14.3
23:52 2.7 1.4 91 1006.2 6.9 SE 8.3 0.0 14.3
23:53 2.7 1.4 91 1006.2 8.3 SE 8.3 0.0 14.3
23:55 2.8 1.5 91 1006.1 6.9 SE 8.3 0.0 14.3
23:56 2.8 1.5 91 1006.0 6.9 SE 8.3 0.0 14.3
23:58 2.8 1.5 91 1006.1 9.2 SE 9.2 0.0 14.3

UK - WEATHER STATION TOPSITES - UK World Weather Websites

This is a private weather station, never base important decisions or events on data from this weather station. Although every effort has been made to make the data as accurate as possible it does not meet MetOffice standards. It is proved as a guide of local weather conditions. We accept no liability for any loss which may arise from use of the data.

Copyright © Carnkie Weather 2009 - 2018.